| time (UTC) | temp F | wind direction | speed MPH | gust MPH | rain 1hr in | rain 24hr in | rain mn in | humidity % | barometer mb |
| 20260503175003 | 64 | 299 | 4.0 | 8.0 | 0.00 | 0.00 | 0.00 | 63 | 1020.0 |
| 20260503174903 | 64 | 299 | 4.0 | 8.0 | 0.00 | 0.00 | 0.00 | 63 | 1019.9 |
| 20260503174803 | 64 | 299 | 4.0 | 8.0 | 0.00 | 0.00 | 0.00 | 63 | 1019.8 |
| 20260503174703 | 64 | 299 | 4.0 | 8.0 | 0.00 | 0.00 | 0.00 | 63 | 1019.9 |
| 20260503174603 | 64 | 298 | 4.0 | 8.0 | 0.00 | 0.00 | 0.00 | 63 | 1020.0 |
| 20260503174503 | 64 | 299 | 4.0 | 8.0 | 0.00 | 0.00 | 0.00 | 63 | 1019.9 |
| 20260503174403 | 64 | 301 | 4.0 | 8.0 | 0.00 | 0.00 | 0.00 | 62 | 1019.9 |
| 20260503174303 | 64 | 302 | 4.0 | 7.0 | 0.00 | 0.00 | 0.00 | 62 | 1020.0 |
| 20260503174203 | 64 | 301 | 4.0 | 7.0 | 0.00 | 0.00 | 0.00 | 62 | 1020.0 |
| 20260503174103 | 64 | 300 | 4.0 | 7.0 | 0.00 | 0.00 | 0.00 | 62 | 1020.0 |
| 20260503174003 | 64 | 300 | 3.0 | 7.0 | 0.00 | 0.00 | 0.00 | 61 | 1019.9 |
| 20260503173903 | 64 | 300 | 3.0 | 7.0 | 0.00 | 0.00 | 0.00 | 61 | 1020.0 |
| 20260503173803 | 65 | 300 | 3.0 | 7.0 | 0.00 | 0.00 | 0.00 | 61 | 1020.0 |
| 20260503173703 | 65 | 299 | 3.0 | 7.0 | 0.00 | 0.00 | 0.00 | 61 | 1020.0 |
| 20260503173603 | 65 | 300 | 3.0 | 7.0 | 0.00 | 0.00 | 0.00 | 61 | 1020.0 |
| 20260503173503 | 65 | 298 | 3.0 | 7.0 | 0.00 | 0.00 | 0.00 | 61 | 1020.0 |
| 20260503173403 | 65 | 297 | 3.0 | 7.0 | 0.00 | 0.00 | 0.00 | 61 | 1020.0 |
| 20260503173303 | 65 | 299 | 3.0 | 7.0 | 0.00 | 0.00 | 0.00 | 61 | 1020.0 |
| 20260503173203 | 65 | 301 | 3.0 | 7.0 | 0.00 | 0.00 | 0.00 | 61 | 1020.0 |
| 20260503173103 | 65 | 301 | 3.0 | 7.0 | 0.00 | 0.00 | 0.00 | 61 | 1019.9 |
| 20260503173003 | 65 | 301 | 4.0 | 8.0 | 0.00 | 0.00 | 0.00 | 61 | 1020.0 |
| 20260503172903 | 65 | 301 | 4.0 | 8.0 | 0.00 | 0.00 | 0.00 | 61 | 1020.0 |
| 20260503172803 | 65 | 301 | 4.0 | 8.0 | 0.00 | 0.00 | 0.00 | 61 | 1019.9 |
| 20260503172703 | 65 | 302 | 4.0 | 8.0 | 0.00 | 0.00 | 0.00 | 61 | 1020.0 |
| 20260503172603 | 65 | 303 | 4.0 | 8.0 | 0.00 | 0.00 | 0.00 | 61 | 1019.9 |
| 20260503172503 | 65 | 302 | 4.0 | 8.0 | 0.00 | 0.00 | 0.00 | 61 | 1020.0 |
| 20260503172403 | 65 | 301 | 4.0 | 8.0 | 0.00 | 0.00 | 0.00 | 62 | 1020.0 |
| 20260503172305 | 65 | 300 | 4.0 | 8.0 | 0.00 | 0.00 | 0.00 | 62 | 1019.9 |
| 20260503172203 | 65 | 300 | 4.0 | 8.0 | 0.00 | 0.00 | 0.00 | 62 | 1019.9 |
| 20260503172104 | 65 | 300 | 4.0 | 8.0 | 0.00 | 0.00 | 0.00 | 62 | 1019.8 |
| 20260503172004 | 65 | 300 | 4.0 | 8.0 | 0.00 | 0.00 | 0.00 | 62 | 1019.9 |
| 20260503171904 | 65 | 300 | 4.0 | 8.0 | 0.00 | 0.00 | 0.00 | 62 | 1019.8 |
| 20260503171804 | 65 | 300 | 4.0 | 8.0 | 0.00 | 0.00 | 0.00 | 61 | 1019.9 |
| 20260503171704 | 65 | 299 | 4.0 | 8.0 | 0.00 | 0.00 | 0.00 | 61 | 1019.8 |
| 20260503171604 | 65 | 298 | 4.0 | 8.0 | 0.00 | 0.00 | 0.00 | 62 | 1019.8 |
| 20260503171504 | 65 | 299 | 4.0 | 8.0 | 0.00 | 0.00 | 0.00 | 62 | 1019.7 |
| 20260503171404 | 65 | 299 | 4.0 | 8.0 | 0.00 | 0.00 | 0.00 | 62 | 1019.8 |
| 20260503171304 | 65 | 299 | 4.0 | 8.0 | 0.00 | 0.00 | 0.00 | 62 | 1019.8 |
| 20260503171204 | 65 | 298 | 3.0 | 8.0 | 0.00 | 0.00 | 0.00 | 62 | 1019.8 |
| 20260503171104 | 65 | 298 | 3.0 | 8.0 | 0.00 | 0.00 | 0.00 | 62 | 1019.8 |
| 20260503171004 | 65 | 297 | 3.0 | 8.0 | 0.00 | 0.00 | 0.00 | 62 | 1019.8 |
| 20260503170904 | 65 | 296 | 3.0 | 8.0 | 0.00 | 0.00 | 0.00 | 62 | 1019.9 |
| 20260503170804 | 65 | 295 | 3.0 | 8.0 | 0.00 | 0.00 | 0.00 | 62 | 1019.8 |
| 20260503170705 | 65 | 296 | 3.0 | 7.0 | 0.00 | 0.00 | 0.00 | 62 | 1019.9 |
| 20260503170604 | 65 | 295 | 3.0 | 7.0 | 0.00 | 0.00 | 0.00 | 62 | 1019.9 |
| 20260503170504 | 65 | 294 | 3.0 | 7.0 | 0.00 | 0.00 | 0.00 | 62 | 1019.9 |
| 20260503170404 | 65 | 293 | 3.0 | 7.0 | 0.00 | 0.00 | 0.00 | 62 | 1019.9 |
| 20260503170304 | 65 | 292 | 3.0 | 7.0 | 0.00 | 0.00 | 0.00 | 62 | 1019.9 |
| 20260503170204 | 65 | 292 | 3.0 | 7.0 | 0.00 | 0.00 | 0.00 | 62 | 1019.9 |
| 20260503170104 | 65 | 291 | 3.0 | 7.0 | 0.00 | 0.00 | 0.00 | 63 | 1019.7 |
| 20260503160203 | 67 | 297 | 3.0 | 10.0 | 0.00 | 0.00 | 0.00 | 60 | 1019.8 |
| 20260503160103 | 67 | 296 | 4.0 | 10.0 | 0.00 | 0.00 | 0.00 | 60 | 1019.8 |
| 20260503151003 | 67 | 298 | 3.0 | 10.0 | 0.00 | 0.00 | 0.00 | 57 | 1019.9 |
| 20260503150903 | 67 | 297 | 3.0 | 10.0 | 0.00 | 0.00 | 0.00 | 58 | 1019.9 |
| 20260503150803 | 67 | 298 | 3.0 | 10.0 | 0.00 | 0.00 | 0.00 | 58 | 1020.0 |
| 20260503150703 | 67 | 297 | 3.0 | 10.0 | 0.00 | 0.00 | 0.00 | 58 | 1020.0 |
| 20260503150603 | 67 | 296 | 4.0 | 10.0 | 0.00 | 0.00 | 0.00 | 59 | 1020.0 |
| 20260503150503 | 67 | 297 | 4.0 | 10.0 | 0.00 | 0.00 | 0.00 | 59 | 1020.0 |
| 20260503150404 | 67 | 296 | 4.0 | 10.0 | 0.00 | 0.00 | 0.00 | 59 | 1020.0 |
| 20260503150304 | 67 | 297 | 5.0 | 10.0 | 0.00 | 0.00 | 0.00 | 59 | 1020.0 |
| 20260503150204 | 67 | 298 | 5.0 | 13.0 | 0.00 | 0.00 | 0.00 | 59 | 1020.0 |
| 20260503150104 | 67 | 299 | 5.0 | 13.0 | 0.00 | 0.00 | 0.00 | 59 | 1020.1 |
| 20260503140303 | 68 | 299 | 5.0 | 13.0 | 0.00 | 0.00 | 0.00 | 61 | 1020.0 |
| 20260503140103 | 68 | 297 | 5.0 | 14.0 | 0.00 | 0.00 | 0.00 | 61 | 1019.9 |
| 20260503131403 | 67 | 300 | 5.0 | 14.0 | 0.00 | 0.00 | 0.00 | 60 | 1020.4 |
| 20260503131303 | 67 | 300 | 5.0 | 14.0 | 0.00 | 0.00 | 0.00 | 60 | 1020.5 |
| 20260503131203 | 67 | 300 | 6.0 | 14.0 | 0.00 | 0.00 | 0.00 | 60 | 1020.5 |
| 20260503131103 | 67 | 301 | 6.0 | 14.0 | 0.00 | 0.00 | 0.00 | 60 | 1020.5 |
| 20260503130903 | 67 | 301 | 7.0 | 19.0 | 0.00 | 0.00 | 0.00 | 60 | 1020.3 |
| 20260503130803 | 67 | 300 | 7.0 | 19.0 | 0.00 | 0.00 | 0.00 | 60 | 1020.5 |
| 20260503130703 | 67 | 299 | 7.0 | 19.0 | 0.00 | 0.00 | 0.00 | 60 | 1020.5 |
| 20260503130603 | 67 | 298 | 7.0 | 19.0 | 0.00 | 0.00 | 0.00 | 60 | 1020.3 |
| 20260503130503 | 67 | 298 | 6.0 | 19.0 | 0.00 | 0.00 | 0.00 | 60 | 1020.3 |
| 20260503130403 | 67 | 297 | 6.0 | 19.0 | 0.00 | 0.00 | 0.00 | 60 | 1020.4 |
| 20260503130303 | 67 | 297 | 6.0 | 19.0 | 0.00 | 0.00 | 0.00 | 60 | 1020.4 |
| 20260503130203 | 68 | 296 | 6.0 | 19.0 | 0.00 | 0.00 | 0.00 | 60 | 1020.4 |
| 20260503130103 | 68 | 296 | 6.0 | 19.0 | 0.00 | 0.00 | 0.00 | 60 | 1020.4 |
| 20260503120204 | 68 | 300 | 4.0 | 15.0 | 0.00 | 0.00 | 0.00 | 59 | 1021.0 |
| 20260503120104 | 68 | 301 | 5.0 | 15.0 | 0.00 | 0.00 | 0.00 | 59 | 1021.0 |
| 20260503110803 | 68 | 301 | 3.0 | 15.0 | 0.00 | 0.00 | 0.00 | 56 | 1021.0 |
| 20260503110703 | 68 | 302 | 3.0 | 15.0 | 0.00 | 0.00 | 0.00 | 56 | 1020.9 |
| 20260503110603 | 69 | 302 | 3.0 | 15.0 | 0.00 | 0.00 | 0.00 | 56 | 1020.9 |
| 20260503110503 | 69 | 301 | 3.0 | 15.0 | 0.00 | 0.00 | 0.00 | 56 | 1020.9 |
| 20260503110404 | 69 | 299 | 3.0 | 15.0 | 0.00 | 0.00 | 0.00 | 56 | 1020.9 |
| 20260503110303 | 69 | 300 | 2.0 | 14.0 | 0.00 | 0.00 | 0.00 | 57 | 1021.0 |
| 20260503110203 | 69 | 297 | 2.0 | 12.0 | 0.00 | 0.00 | 0.00 | 57 | 1020.8 |
| 20260503100204 | 67 | 295 | 5.0 | 11.0 | 0.00 | 0.00 | 0.00 | 58 | 1021.1 |
| 20260503100104 | 67 | 294 | 5.0 | 11.0 | 0.00 | 0.00 | 0.00 | 58 | 1021.2 |
| 20260503090503 | 68 | 293 | 4.0 | 14.0 | 0.00 | 0.00 | 0.00 | 54 | 1021.3 |
| 20260503090403 | 68 | 292 | 4.0 | 14.0 | 0.00 | 0.00 | 0.00 | 55 | 1021.4 |
| 20260503090303 | 68 | 293 | 4.0 | 14.0 | 0.00 | 0.00 | 0.00 | 55 | 1021.4 |
| 20260503090203 | 68 | 296 | 4.0 | 14.0 | 0.00 | 0.00 | 0.00 | 55 | 1021.3 |
| 20260503081604 | 68 | 293 | 3.0 | 12.0 | 0.00 | 0.00 | 0.00 | 53 | 1021.1 |
| 20260503081504 | 68 | 294 | 3.0 | 12.0 | 0.00 | 0.00 | 0.00 | 53 | 1021.2 |
| 20260503081404 | 68 | 295 | 3.0 | 12.0 | 0.00 | 0.00 | 0.00 | 53 | 1021.3 |
| 20260503081304 | 68 | 295 | 3.0 | 12.0 | 0.00 | 0.00 | 0.00 | 53 | 1021.3 |
| 20260503081204 | 68 | 297 | 3.0 | 12.0 | 0.00 | 0.00 | 0.00 | 53 | 1021.2 |
| 20260503081104 | 68 | 297 | 3.0 | 12.0 | 0.00 | 0.00 | 0.00 | 53 | 1021.1 |
| 20260503081004 | 68 | 297 | 2.0 | 12.0 | 0.00 | 0.00 | 0.00 | 53 | 1021.2 |
| 20260503080904 | 68 | 296 | 3.0 | 12.0 | 0.00 | 0.00 | 0.00 | 53 | 1021.1 |
| 20260503080804 | 68 | 298 | 3.0 | 12.0 | 0.00 | 0.00 | 0.00 | 53 | 1021.2 |
| 20260503080704 | 68 | 299 | 2.0 | 8.0 | 0.00 | 0.00 | 0.00 | 53 | 1021.2 |
| 20260503080604 | 68 | 298 | 2.0 | 8.0 | 0.00 | 0.00 | 0.00 | 53 | 1021.2 |
| 20260503080504 | 68 | 298 | 2.0 | 8.0 | 0.00 | 0.00 | 0.00 | 53 | 1021.3 |
| 20260503080404 | 68 | 295 | 2.0 | 11.0 | 0.00 | 0.00 | 0.00 | 53 | 1021.3 |
| 20260503080304 | 68 | 296 | 3.0 | 11.0 | 0.00 | 0.00 | 0.00 | 52 | 1021.1 |
| 20260503080204 | 68 | 295 | 3.0 | 11.0 | 0.00 | 0.00 | 0.00 | 52 | 1021.2 |
| 20260503080104 | 68 | 294 | 3.0 | 11.0 | 0.00 | 0.00 | 0.00 | 52 | 1021.2 |
| 20260503072904 | 69 | 294 | 3.0 | 15.0 | 0.00 | 0.00 | 0.00 | 50 | 1021.4 |
| 20260503072803 | 69 | 294 | 3.0 | 15.0 | 0.00 | 0.00 | 0.00 | 50 | 1021.4 |
| 20260503072703 | 69 | 293 | 2.0 | 15.0 | 0.00 | 0.00 | 0.00 | 49 | 1021.3 |
| 20260503072603 | 69 | 293 | 2.0 | 15.0 | 0.00 | 0.00 | 0.00 | 49 | 1021.3 |
| 20260503072503 | 69 | 292 | 2.0 | 15.0 | 0.00 | 0.00 | 0.00 | 49 | 1021.3 |
| 20260503072403 | 69 | 293 | 2.0 | 9.0 | 0.00 | 0.00 | 0.00 | 49 | 1021.3 |
| 20260503072305 | 69 | 294 | 2.0 | 7.0 | 0.00 | 0.00 | 0.00 | 49 | 1021.4 |
| 20260503072203 | 69 | 292 | 2.0 | 9.0 | 0.00 | 0.00 | 0.00 | 49 | 1021.4 |
| 20260503072103 | 69 | 296 | 2.0 | 9.0 | 0.00 | 0.00 | 0.00 | 49 | 1021.2 |
| 20260503072003 | 69 | 296 | 2.0 | 9.0 | 0.00 | 0.00 | 0.00 | 49 | 1021.3 |
| 20260503071903 | 69 | 292 | 2.0 | 9.0 | 0.00 | 0.00 | 0.00 | 49 | 1021.3 |
| 20260503071803 | 69 | 292 | 2.0 | 9.0 | 0.00 | 0.00 | 0.00 | 49 | 1021.3 |
| 20260503071703 | 69 | 291 | 2.0 | 9.0 | 0.00 | 0.00 | 0.00 | 49 | 1021.3 |
| 20260503071603 | 69 | 292 | 2.0 | 9.0 | 0.00 | 0.00 | 0.00 | 49 | 1021.3 |
| 20260503071503 | 69 | 292 | 2.0 | 9.0 | 0.00 | 0.00 | 0.00 | 49 | 1021.2 |
| 20260503071403 | 69 | 291 | 3.0 | 9.0 | 0.00 | 0.00 | 0.00 | 49 | 1021.3 |
| 20260503071303 | 69 | 291 | 3.0 | 9.0 | 0.00 | 0.00 | 0.00 | 49 | 1021.4 |
| 20260503071203 | 69 | 291 | 2.0 | 8.0 | 0.00 | 0.00 | 0.00 | 49 | 1021.4 |
| 20260503071103 | 69 | 290 | 2.0 | 9.0 | 0.00 | 0.00 | 0.00 | 49 | 1021.3 |
| 20260503071003 | 69 | 290 | 2.0 | 9.0 | 0.00 | 0.00 | 0.00 | 49 | 1021.4 |
| 20260503070903 | 69 | 293 | 2.0 | 9.0 | 0.00 | 0.00 | 0.00 | 49 | 1021.4 |
| 20260503070803 | 69 | 294 | 2.0 | 9.0 | 0.00 | 0.00 | 0.00 | 49 | 1021.4 |
| 20260503070703 | 69 | 297 | 2.0 | 9.0 | 0.00 | 0.00 | 0.00 | 49 | 1021.4 |
| 20260503070603 | 69 | 298 | 2.0 | 9.0 | 0.00 | 0.00 | 0.00 | 49 | 1021.4 |
| 20260503070503 | 69 | 297 | 2.0 | 9.0 | 0.00 | 0.00 | 0.00 | 49 | 1021.4 |
| 20260503070403 | 69 | 297 | 2.0 | 9.0 | 0.00 | 0.00 | 0.00 | 49 | 1021.4 |
| 20260503070303 | 69 | 297 | 2.0 | 9.0 | 0.00 | 0.00 | 0.00 | 49 | 1021.4 |
| 20260503070203 | 69 | 298 | 2.0 | 9.0 | 0.00 | 0.00 | 0.00 | 49 | 1021.4 |
| 20260503070103 | 69 | 298 | 2.0 | 9.0 | 0.00 | 0.00 | 0.00 | 49 | 1021.4 |
| 20260503060304 | 66 | 292 | 2.0 | 6.0 | 0.00 | 0.00 | 0.00 | 53 | 1021.2 |
| 20260503060204 | 66 | 292 | 2.0 | 8.0 | 0.00 | 0.00 | 0.00 | 53 | 1021.3 |
| 20260503060104 | 66 | 292 | 2.0 | 8.0 | 0.00 | 0.00 | 0.00 | 53 | 1021.3 |
| 20260503055104 | 67 | 299 | 1.0 | 7.0 | 0.00 | 0.00 | 0.00 | 53 | 1021.2 |
| 20260503055004 | 67 | 299 | 2.0 | 7.0 | 0.00 | 0.00 | 0.00 | 53 | 1021.2 |
| 20260503054904 | 67 | 303 | 1.0 | 6.0 | 0.00 | 0.00 | 0.00 | 53 | 1021.1 |
| 20260503054804 | 67 | 297 | 1.0 | 6.0 | 0.00 | 0.00 | 0.00 | 53 | 1021.2 |
| 20260503054704 | 67 | 300 | 1.0 | 6.0 | 0.00 | 0.00 | 0.00 | 54 | 1021.1 |
| 20260503054604 | 67 | 300 | 1.0 | 6.0 | 0.00 | 0.00 | 0.00 | 54 | 1021.1 |
| 20260503054504 | 67 | 298 | 1.0 | 6.0 | 0.00 | 0.00 | 0.00 | 54 | 1021.1 |
| 20260503054404 | 67 | 297 | 1.0 | 6.0 | 0.00 | 0.00 | 0.00 | 54 | 1021.2 |
| 20260503054304 | 67 | 297 | 1.0 | 6.0 | 0.00 | 0.00 | 0.00 | 54 | 1021.2 |
| 20260503054204 | 67 | 296 | 1.0 | 6.0 | 0.00 | 0.00 | 0.00 | 55 | 1021.1 |
| 20260503054104 | 67 | 290 | 0.0 | 6.0 | 0.00 | 0.00 | 0.00 | 55 | 1021.2 |
| 20260503054004 | 66 | 288 | 0.0 | 6.0 | 0.00 | 0.00 | 0.00 | 55 | 1021.2 |
| 20260503053904 | 66 | 287 | 1.0 | 7.0 | 0.00 | 0.00 | 0.00 | 55 | 1021.1 |
| 20260503053804 | 66 | 287 | 1.0 | 7.0 | 0.00 | 0.00 | 0.00 | 56 | 1021.1 |
| 20260503053704 | 66 | 290 | 1.0 | 7.0 | 0.00 | 0.00 | 0.00 | 56 | 1021.1 |
| 20260503053604 | 66 | 292 | 1.0 | 7.0 | 0.00 | 0.00 | 0.00 | 56 | 1021.1 |
| 20260503053504 | 65 | 293 | 1.0 | 7.0 | 0.00 | 0.00 | 0.00 | 56 | 1021.1 |
| 20260503053404 | 65 | 294 | 1.0 | 7.0 | 0.00 | 0.00 | 0.00 | 57 | 1021.1 |
| 20260503053304 | 65 | 294 | 1.0 | 7.0 | 0.00 | 0.00 | 0.00 | 57 | 1021.1 |
| 20260503053204 | 65 | 294 | 1.0 | 7.0 | 0.00 | 0.00 | 0.00 | 57 | 1021.1 |
| 20260503053104 | 65 | 293 | 1.0 | 7.0 | 0.00 | 0.00 | 0.00 | 57 | 1021.1 |
| 20260503053004 | 65 | 293 | 1.0 | 7.0 | 0.00 | 0.00 | 0.00 | 58 | 1021.2 |
| 20260503052904 | 65 | 296 | 1.0 | 5.0 | 0.00 | 0.00 | 0.00 | 58 | 1021.2 |
| 20260503052803 | 64 | 295 | 1.0 | 5.0 | 0.00 | 0.00 | 0.00 | 58 | 1021.2 |
| 20260503052704 | 64 | 296 | 1.0 | 7.0 | 0.00 | 0.00 | 0.00 | 58 | 1021.3 |
| 20260503052603 | 64 | 295 | 1.0 | 7.0 | 0.00 | 0.00 | 0.00 | 59 | 1021.2 |
| 20260503052504 | 64 | 295 | 1.0 | 7.0 | 0.00 | 0.00 | 0.00 | 59 | 1021.1 |
| 20260503052403 | 63 | 294 | 1.0 | 7.0 | 0.00 | 0.00 | 0.00 | 59 | 1021.2 |
| 20260503052305 | 63 | 294 | 1.0 | 7.0 | 0.00 | 0.00 | 0.00 | 59 | 1021.2 |
| 20260503052204 | 63 | 294 | 1.0 | 7.0 | 0.00 | 0.00 | 0.00 | 60 | 1021.2 |
| 20260503052103 | 63 | 296 | 1.0 | 7.0 | 0.00 | 0.00 | 0.00 | 60 | 1021.3 |
| 20260503052003 | 62 | 296 | 1.0 | 7.0 | 0.00 | 0.00 | 0.00 | 60 | 1021.2 |
| 20260503051903 | 62 | 297 | 1.0 | 7.0 | 0.00 | 0.00 | 0.00 | 60 | 1021.1 |
| 20260503051803 | 62 | 298 | 0.0 | 7.0 | 0.00 | 0.00 | 0.00 | 61 | 1021.2 |
| 20260503051703 | 62 | 295 | 0.0 | 2.0 | 0.00 | 0.00 | 0.00 | 61 | 1021.2 |
| 20260503051603 | 62 | 295 | 0.0 | 2.0 | 0.00 | 0.00 | 0.00 | 61 | 1021.2 |
| 20260503051503 | 61 | 297 | 0.0 | 2.0 | 0.00 | 0.00 | 0.00 | 61 | 1021.2 |
| 20260503051403 | 61 | 302 | 0.0 | 2.0 | 0.00 | 0.00 | 0.00 | 61 | 1021.2 |
| 20260503051303 | 61 | 302 | 0.0 | 2.0 | 0.00 | 0.00 | 0.00 | 61 | 1021.1 |
| 20260503051203 | 61 | 302 | 0.0 | 2.0 | 0.00 | 0.00 | 0.00 | 61 | 1021.2 |
| 20260503051103 | 61 | 302 | 0.0 | 2.0 | 0.00 | 0.00 | 0.00 | 61 | 1021.1 |
| 20260503051003 | 61 | 0 | 0.0 | 0.0 | 0.00 | 0.00 | 0.00 | 61 | 1021.2 |
| 20260503050903 | 61 | 0 | 0.0 | 0.0 | 0.00 | 0.00 | 0.00 | 62 | 1021.1 |
| 20260503050803 | 61 | 0 | 0.0 | 0.0 | 0.00 | 0.00 | 0.00 | 62 | 1021.1 |
| 20260503050703 | 61 | 0 | 0.0 | 0.0 | 0.00 | 0.00 | 0.00 | 62 | 1021.1 |
| 20260503050603 | 61 | 0 | 0.0 | 0.0 | 0.00 | 0.00 | 0.00 | 62 | 1021.2 |
| 20260503050503 | 61 | 0 | 0.0 | 0.0 | 0.00 | 0.00 | 0.00 | 62 | 1021.2 |
| 20260503050403 | 60 | 0 | 0.0 | 0.0 | 0.00 | 0.00 | 0.00 | 62 | 1021.1 |
| 20260503050303 | 60 | 0 | 0.0 | 0.0 | 0.00 | 0.00 | 0.00 | 62 | 1021.2 |
| 20260503050203 | 60 | 0 | 0.0 | 0.0 | 0.00 | 0.00 | 0.00 | 62 | 1021.2 |
| 20260503050103 | 60 | 0 | 0.0 | 0.0 | 0.00 | 0.00 | 0.00 | 62 | 1021.1 |
| 20260503050003 | 60 | 0 | 0.0 | 0.0 | 0.00 | 0.00 | 0.00 | 62 | 1021.1 |
| 20260503045904 | 60 | 0 | 0.0 | 0.0 | 0.00 | 0.00 | 0.00 | 62 | 1021.2 |
| 20260503045803 | 60 | 0 | 0.0 | 0.0 | 0.00 | 0.00 | 0.00 | 62 | 1021.2 |
| 20260503045707 | 60 | 0 | 0.0 | 0.0 | 0.00 | 0.00 | 0.00 | 62 | 1021.1 |
| 20260503045603 | 60 | 0 | 0.0 | 0.0 | 0.00 | 0.00 | 0.00 | 62 | 1021.1 |
| 20260503045503 | 60 | 0 | 0.0 | 0.0 | 0.00 | 0.00 | 0.00 | 62 | 1021.1 |
| 20260503045403 | 60 | 0 | 0.0 | 0.0 | 0.00 | 0.00 | 0.00 | 63 | 1021.1 |
| 20260503045305 | 60 | 0 | 0.0 | 0.0 | 0.00 | 0.00 | 0.00 | 62 | 1021.1 |
| 20260503045203 | 60 | 0 | 0.0 | 0.0 | 0.00 | 0.00 | 0.00 | 63 | 1021.2 |
| 20260503045103 | 60 | 0 | 0.0 | 0.0 | 0.00 | 0.00 | 0.00 | 63 | 1021.1 |
| 20260503045003 | 60 | 0 | 0.0 | 0.0 | 0.00 | 0.00 | 0.00 | 63 | 1021.1 |
| 20260503044903 | 60 | 0 | 0.0 | 0.0 | 0.00 | 0.00 | 0.00 | 63 | 1021.1 |
| 20260503044803 | 60 | 0 | 0.0 | 0.0 | 0.00 | 0.00 | 0.00 | 62 | 1021.1 |
| 20260503044703 | 60 | 0 | 0.0 | 0.0 | 0.00 | 0.00 | 0.00 | 62 | 1021.1 |
| 20260503044603 | 60 | 0 | 0.0 | 0.0 | 0.00 | 0.00 | 0.00 | 63 | 1021.1 |
| 20260503044503 | 60 | 0 | 0.0 | 0.0 | 0.00 | 0.00 | 0.00 | 63 | 1021.1 |
| 20260503044403 | 60 | 0 | 0.0 | 0.0 | 0.00 | 0.00 | 0.00 | 63 | 1021.1 |
| 20260503044303 | 60 | 0 | 0.0 | 0.0 | 0.00 | 0.00 | 0.00 | 63 | 1021.1 |
| 20260503044203 | 60 | 0 | 0.0 | 0.0 | 0.00 | 0.00 | 0.00 | 63 | 1021.1 |
| 20260503044103 | 60 | 0 | 0.0 | 0.0 | 0.00 | 0.00 | 0.00 | 62 | 1021.1 |
| 20260503044003 | 60 | 0 | 0.0 | 0.0 | 0.00 | 0.00 | 0.00 | 62 | 1021.0 |
| 20260503043903 | 60 | 0 | 0.0 | 0.0 | 0.00 | 0.00 | 0.00 | 62 | 1021.0 |
| 20260503043803 | 60 | 0 | 0.0 | 0.0 | 0.00 | 0.00 | 0.00 | 62 | 1021.1 |
| 20260503043704 | 60 | 0 | 0.0 | 0.0 | 0.00 | 0.00 | 0.00 | 62 | 1021.1 |
| 20260503043603 | 60 | 0 | 0.0 | 0.0 | 0.00 | 0.00 | 0.00 | 62 | 1021.1 |
| 20260503043503 | 60 | 0 | 0.0 | 0.0 | 0.00 | 0.00 | 0.00 | 62 | 1021.0 |
| 20260503043403 | 60 | 0 | 0.0 | 0.0 | 0.00 | 0.00 | 0.00 | 63 | 1021.1 |
| 20260503043303 | 60 | 0 | 0.0 | 0.0 | 0.00 | 0.00 | 0.00 | 63 | 1021.1 |
| 20260503043203 | 60 | 0 | 0.0 | 0.0 | 0.00 | 0.00 | 0.00 | 62 | 1021.1 |
| 20260503043103 | 60 | 0 | 0.0 | 0.0 | 0.00 | 0.00 | 0.00 | 62 | 1021.1 |
| 20260503043003 | 59 | 0 | 0.0 | 0.0 | 0.00 | 0.00 | 0.00 | 62 | 1021.0 |
| 20260503042903 | 59 | 0 | 0.0 | 0.0 | 0.00 | 0.00 | 0.00 | 62 | 1021.1 |
| 20260503042803 | 60 | 0 | 0.0 | 0.0 | 0.00 | 0.00 | 0.00 | 62 | 1021.0 |
| 20260503042703 | 60 | 0 | 0.0 | 0.0 | 0.00 | 0.00 | 0.00 | 63 | 1021.0 |
| 20260503042603 | 60 | 0 | 0.0 | 0.0 | 0.00 | 0.00 | 0.00 | 63 | 1020.9 |
| 20260503042503 | 60 | 0 | 0.0 | 0.0 | 0.00 | 0.00 | 0.00 | 62 | 1021.0 |
| 20260503042403 | 60 | 0 | 0.0 | 0.0 | 0.00 | 0.00 | 0.00 | 62 | 1021.0 |
| 20260503042305 | 60 | 0 | 0.0 | 0.0 | 0.00 | 0.00 | 0.00 | 62 | 1021.0 |
| 20260503042203 | 60 | 0 | 0.0 | 0.0 | 0.00 | 0.00 | 0.00 | 62 | 1021.0 |
| 20260503042103 | 60 | 0 | 0.0 | 0.0 | 0.00 | 0.00 | 0.00 | 62 | 1020.9 |
| 20260503042003 | 60 | 0 | 0.0 | 0.0 | 0.00 | 0.00 | 0.00 | 62 | 1020.8 |
| 20260503041903 | 60 | 0 | 0.0 | 0.0 | 0.00 | 0.00 | 0.00 | 62 | 1020.8 |
| 20260503041803 | 60 | 0 | 0.0 | 0.0 | 0.00 | 0.00 | 0.00 | 62 | 1020.8 |
| 20260503041703 | 60 | 0 | 0.0 | 0.0 | 0.00 | 0.00 | 0.00 | 62 | 1020.7 |
| 20260503041603 | 60 | 0 | 0.0 | 0.0 | 0.00 | 0.00 | 0.00 | 62 | 1020.7 |
| 20260503041503 | 60 | 0 | 0.0 | 0.0 | 0.00 | 0.00 | 0.00 | 62 | 1020.8 |
| 20260503041403 | 60 | 0 | 0.0 | 0.0 | 0.00 | 0.00 | 0.00 | 62 | 1020.8 |
| 20260503041303 | 60 | 0 | 0.0 | 0.0 | 0.00 | 0.00 | 0.00 | 62 | 1020.8 |
| 20260503041203 | 60 | 0 | 0.0 | 0.0 | 0.00 | 0.00 | 0.00 | 62 | 1020.9 |
| 20260503041103 | 60 | 0 | 0.0 | 0.0 | 0.00 | 0.00 | 0.00 | 62 | 1020.8 |
| 20260503041003 | 60 | 0 | 0.0 | 0.0 | 0.00 | 0.00 | 0.00 | 62 | 1020.9 |
| 20260503040903 | 60 | 0 | 0.0 | 0.0 | 0.00 | 0.00 | 0.00 | 62 | 1020.8 |
| 20260503040803 | 60 | 0 | 0.0 | 0.0 | 0.00 | 0.00 | 0.00 | 62 | 1020.8 |
| 20260503040703 | 60 | 0 | 0.0 | 0.0 | 0.00 | 0.00 | 0.00 | 62 | 1020.8 |
| 20260503040603 | 60 | 0 | 0.0 | 0.0 | 0.00 | 0.00 | 0.00 | 62 | 1020.8 |
| 20260503040503 | 60 | 0 | 0.0 | 0.0 | 0.00 | 0.00 | 0.00 | 62 | 1020.8 |
| 20260503040403 | 60 | 0 | 0.0 | 0.0 | 0.00 | 0.00 | 0.00 | 62 | 1020.9 |
| 20260503040303 | 60 | 0 | 0.0 | 0.0 | 0.00 | 0.00 | 0.00 | 62 | 1021.0 |
| 20260503040203 | 60 | 0 | 0.0 | 0.0 | 0.00 | 0.00 | 0.00 | 62 | 1020.8 |
| 20260503040103 | 60 | 0 | 0.0 | 0.0 | 0.00 | 0.00 | 0.00 | 62 | 1020.7 |
| 20260503040003 | 60 | 0 | 0.0 | 0.0 | 0.00 | 0.00 | 0.00 | 62 | 1020.7 |
| 20260503035903 | 60 | 0 | 0.0 | 0.0 | 0.00 | 0.00 | 0.00 | 62 | 1020.8 |
| 20260503035803 | 60 | 0 | 0.0 | 0.0 | 0.00 | 0.00 | 0.00 | 62 | 1020.8 |
| 20260503035703 | 60 | 0 | 0.0 | 0.0 | 0.00 | 0.00 | 0.00 | 62 | 1020.8 |
| 20260503035603 | 60 | 0 | 0.0 | 0.0 | 0.00 | 0.00 | 0.00 | 62 | 1020.7 |
| 20260503035503 | 60 | 0 | 0.0 | 0.0 | 0.00 | 0.00 | 0.00 | 62 | 1020.8 |
| 20260503035403 | 60 | 0 | 0.0 | 0.0 | 0.00 | 0.00 | 0.00 | 62 | 1020.8 |
| 20260503035304 | 60 | 0 | 0.0 | 0.0 | 0.00 | 0.00 | 0.00 | 62 | 1020.8 |
| 20260503035203 | 60 | 0 | 0.0 | 0.0 | 0.00 | 0.00 | 0.00 | 62 | 1020.8 |
| 20260503035103 | 60 | 0 | 0.0 | 0.0 | 0.00 | 0.00 | 0.00 | 62 | 1020.8 |
| 20260503035003 | 60 | 0 | 0.0 | 0.0 | 0.00 | 0.00 | 0.00 | 62 | 1020.7 |
| 20260503034903 | 60 | 0 | 0.0 | 0.0 | 0.00 | 0.00 | 0.00 | 62 | 1020.8 |
| 20260503034803 | 60 | 0 | 0.0 | 0.0 | 0.00 | 0.00 | 0.00 | 62 | 1020.8 |
| 20260503034703 | 60 | 0 | 0.0 | 0.0 | 0.00 | 0.00 | 0.00 | 62 | 1020.7 |
| 20260503034604 | 60 | 0 | 0.0 | 0.0 | 0.00 | 0.00 | 0.00 | 62 | 1020.7 |
| 20260503034504 | 60 | 0 | 0.0 | 0.0 | 0.00 | 0.00 | 0.00 | 62 | 1020.8 |
| 20260503034404 | 60 | 0 | 0.0 | 0.0 | 0.00 | 0.00 | 0.00 | 62 | 1020.8 |
| 20260503034304 | 60 | 0 | 0.0 | 0.0 | 0.00 | 0.00 | 0.00 | 62 | 1020.7 |
| 20260503034204 | 60 | 0 | 0.0 | 0.0 | 0.00 | 0.00 | 0.00 | 62 | 1020.8 |
| 20260503034104 | 60 | 0 | 0.0 | 0.0 | 0.00 | 0.00 | 0.00 | 62 | 1020.7 |
| 20260503034004 | 60 | 0 | 0.0 | 0.0 | 0.00 | 0.00 | 0.00 | 62 | 1020.7 |
| 20260503033904 | 60 | 0 | 0.0 | 0.0 | 0.00 | 0.00 | 0.00 | 62 | 1020.8 |
| 20260503033804 | 60 | 0 | 0.0 | 0.0 | 0.00 | 0.00 | 0.00 | 62 | 1020.8 |
| 20260503033704 | 60 | 0 | 0.0 | 0.0 | 0.00 | 0.00 | 0.00 | 62 | 1020.8 |
| 20260503033604 | 60 | 0 | 0.0 | 0.0 | 0.00 | 0.00 | 0.00 | 62 | 1020.8 |
| 20260503033504 | 60 | 0 | 0.0 | 0.0 | 0.00 | 0.00 | 0.00 | 62 | 1020.9 |
| 20260503033404 | 60 | 0 | 0.0 | 0.0 | 0.00 | 0.00 | 0.00 | 62 | 1020.9 |
| 20260503033204 | 60 | 0 | 0.0 | 0.0 | 0.00 | 0.00 | 0.00 | 62 | 1020.9 |
| 20260503033104 | 60 | 0 | 0.0 | 0.0 | 0.00 | 0.00 | 0.00 | 62 | 1020.9 |
| 20260503033004 | 60 | 0 | 0.0 | 0.0 | 0.00 | 0.00 | 0.00 | 62 | 1020.9 |
| 20260503032904 | 60 | 0 | 0.0 | 0.0 | 0.00 | 0.00 | 0.00 | 62 | 1020.9 |
| 20260503032804 | 59 | 0 | 0.0 | 0.0 | 0.00 | 0.00 | 0.00 | 62 | 1021.0 |
| 20260503032704 | 59 | 0 | 0.0 | 0.0 | 0.00 | 0.00 | 0.00 | 62 | 1021.0 |
| 20260503032604 | 59 | 0 | 0.0 | 0.0 | 0.00 | 0.00 | 0.00 | 62 | 1020.9 |
| 20260503032504 | 59 | 0 | 0.0 | 0.0 | 0.00 | 0.00 | 0.00 | 63 | 1020.9 |
| 20260503032404 | 59 | 0 | 0.0 | 0.0 | 0.00 | 0.00 | 0.00 | 62 | 1021.0 |
| 20260503032304 | 59 | 0 | 0.0 | 0.0 | 0.00 | 0.00 | 0.00 | 62 | 1020.9 |
| 20260503032204 | 59 | 0 | 0.0 | 0.0 | 0.00 | 0.00 | 0.00 | 62 | 1020.8 |
| 20260503032104 | 59 | 0 | 0.0 | 0.0 | 0.00 | 0.00 | 0.00 | 62 | 1020.9 |
| 20260503032004 | 59 | 0 | 0.0 | 0.0 | 0.00 | 0.00 | 0.00 | 62 | 1021.0 |
| 20260503031904 | 59 | 0 | 0.0 | 0.0 | 0.00 | 0.00 | 0.00 | 63 | 1020.9 |
| 20260503031804 | 59 | 0 | 0.0 | 0.0 | 0.00 | 0.00 | 0.00 | 63 | 1020.8 |
| 20260503031704 | 59 | 0 | 0.0 | 0.0 | 0.00 | 0.00 | 0.00 | 63 | 1020.9 |
| 20260503031604 | 59 | 0 | 0.0 | 0.0 | 0.00 | 0.00 | 0.00 | 63 | 1020.9 |
| 20260503031503 | 59 | 0 | 0.0 | 0.0 | 0.00 | 0.00 | 0.00 | 63 | 1020.9 |
| 20260503031404 | 59 | 0 | 0.0 | 0.0 | 0.00 | 0.00 | 0.00 | 63 | 1020.9 |
| 20260503031303 | 59 | 0 | 0.0 | 0.0 | 0.00 | 0.00 | 0.00 | 63 | 1020.9 |
| 20260503031204 | 59 | 0 | 0.0 | 0.0 | 0.00 | 0.00 | 0.00 | 63 | 1020.9 |
| 20260503031104 | 59 | 0 | 0.0 | 0.0 | 0.00 | 0.00 | 0.00 | 63 | 1020.7 |
| 20260503031003 | 59 | 0 | 0.0 | 0.0 | 0.00 | 0.00 | 0.00 | 63 | 1020.8 |
| 20260503030903 | 59 | 0 | 0.0 | 0.0 | 0.00 | 0.00 | 0.00 | 63 | 1020.8 |
| 20260503030803 | 59 | 0 | 0.0 | 0.0 | 0.00 | 0.00 | 0.00 | 63 | 1020.8 |
| 20260503030703 | 59 | 0 | 0.0 | 0.0 | 0.00 | 0.00 | 0.00 | 63 | 1020.9 |
| 20260503030603 | 59 | 0 | 0.0 | 0.0 | 0.00 | 0.00 | 0.00 | 63 | 1021.0 |
| 20260503030504 | 59 | 0 | 0.0 | 0.0 | 0.00 | 0.00 | 0.00 | 63 | 1020.8 |
| 20260503030404 | 59 | 0 | 0.0 | 0.0 | 0.00 | 0.00 | 0.00 | 62 | 1020.8 |
| 20260503030304 | 59 | 0 | 0.0 | 0.0 | 0.00 | 0.00 | 0.00 | 63 | 1020.9 |
| 20260503030203 | 59 | 0 | 0.0 | 0.0 | 0.00 | 0.00 | 0.00 | 62 | 1020.9 |
| 20260503030104 | 59 | 0 | 0.0 | 0.0 | 0.00 | 0.00 | 0.00 | 62 | 1020.9 |
| 20260503030004 | 59 | 0 | 0.0 | 0.0 | 0.00 | 0.00 | 0.00 | 62 | 1020.9 |
| 20260503025904 | 59 | 0 | 0.0 | 0.0 | 0.00 | 0.00 | 0.00 | 62 | 1020.9 |
| 20260503025803 | 59 | 0 | 0.0 | 0.0 | 0.00 | 0.00 | 0.00 | 62 | 1020.8 |
| 20260503025703 | 59 | 0 | 0.0 | 0.0 | 0.00 | 0.00 | 0.00 | 62 | 1020.8 |
| 20260503025603 | 59 | 0 | 0.0 | 0.0 | 0.00 | 0.00 | 0.00 | 62 | 1020.8 |
| 20260503025503 | 59 | 0 | 0.0 | 0.0 | 0.00 | 0.00 | 0.00 | 62 | 1020.9 |
| 20260503025403 | 59 | 0 | 0.0 | 0.0 | 0.00 | 0.00 | 0.00 | 62 | 1020.9 |
| 20260503025305 | 59 | 0 | 0.0 | 0.0 | 0.00 | 0.00 | 0.00 | 62 | 1020.9 |
| 20260503025203 | 59 | 0 | 0.0 | 0.0 | 0.00 | 0.00 | 0.00 | 62 | 1020.9 |
| 20260503025103 | 59 | 0 | 0.0 | 0.0 | 0.00 | 0.00 | 0.00 | 62 | 1020.9 |
| 20260503025003 | 59 | 0 | 0.0 | 0.0 | 0.00 | 0.00 | 0.00 | 62 | 1020.8 |
| 20260503024903 | 59 | 0 | 0.0 | 0.0 | 0.00 | 0.00 | 0.00 | 62 | 1020.8 |
| 20260503024803 | 59 | 0 | 0.0 | 0.0 | 0.00 | 0.00 | 0.00 | 62 | 1020.8 |
| 20260503024703 | 59 | 0 | 0.0 | 0.0 | 0.00 | 0.00 | 0.00 | 62 | 1020.9 |
| 20260503024603 | 59 | 0 | 0.0 | 0.0 | 0.00 | 0.00 | 0.00 | 62 | 1020.9 |
| 20260503024503 | 59 | 0 | 0.0 | 0.0 | 0.00 | 0.00 | 0.00 | 62 | 1020.8 |
| 20260503024403 | 59 | 0 | 0.0 | 0.0 | 0.00 | 0.00 | 0.00 | 62 | 1020.9 |
| 20260503024303 | 59 | 0 | 0.0 | 0.0 | 0.00 | 0.00 | 0.00 | 62 | 1020.8 |
| 20260503024203 | 59 | 0 | 0.0 | 0.0 | 0.00 | 0.00 | 0.00 | 61 | 1020.8 |
| 20260503024103 | 59 | 0 | 0.0 | 0.0 | 0.00 | 0.00 | 0.00 | 61 | 1020.8 |
| 20260503024003 | 59 | 0 | 0.0 | 0.0 | 0.00 | 0.00 | 0.00 | 61 | 1020.9 |
| 20260503023903 | 59 | 0 | 0.0 | 0.0 | 0.00 | 0.00 | 0.00 | 61 | 1020.8 |
| 20260503023803 | 59 | 0 | 0.0 | 0.0 | 0.00 | 0.00 | 0.00 | 61 | 1020.8 |
| 20260503023703 | 59 | 0 | 0.0 | 0.0 | 0.00 | 0.00 | 0.00 | 61 | 1020.8 |
| 20260503023603 | 59 | 0 | 0.0 | 0.0 | 0.00 | 0.00 | 0.00 | 61 | 1020.9 |
| 20260503023503 | 59 | 0 | 0.0 | 0.0 | 0.00 | 0.00 | 0.00 | 61 | 1020.9 |
| 20260503023403 | 59 | 0 | 0.0 | 0.0 | 0.00 | 0.00 | 0.00 | 61 | 1020.8 |
| 20260503023303 | 59 | 0 | 0.0 | 0.0 | 0.00 | 0.00 | 0.00 | 61 | 1020.8 |
| 20260503023203 | 59 | 0 | 0.0 | 0.0 | 0.00 | 0.00 | 0.00 | 61 | 1020.9 |
| 20260503023103 | 59 | 0 | 0.0 | 0.0 | 0.00 | 0.00 | 0.00 | 61 | 1020.8 |
| 20260503023003 | 59 | 0 | 0.0 | 0.0 | 0.00 | 0.00 | 0.00 | 61 | 1020.8 |
| 20260503022903 | 59 | 0 | 0.0 | 0.0 | 0.00 | 0.00 | 0.00 | 61 | 1020.7 |
| 20260503022803 | 59 | 0 | 0.0 | 0.0 | 0.00 | 0.00 | 0.00 | 61 | 1020.8 |
| 20260503022703 | 59 | 0 | 0.0 | 0.0 | 0.00 | 0.00 | 0.00 | 61 | 1020.8 |
| 20260503022603 | 59 | 0 | 0.0 | 0.0 | 0.00 | 0.00 | 0.00 | 61 | 1020.9 |
| 20260503022503 | 59 | 0 | 0.0 | 0.0 | 0.00 | 0.00 | 0.00 | 61 | 1020.8 |
| 20260503022403 | 59 | 0 | 0.0 | 0.0 | 0.00 | 0.00 | 0.00 | 61 | 1020.7 |
| 20260503022305 | 59 | 0 | 0.0 | 0.0 | 0.00 | 0.00 | 0.00 | 61 | 1020.8 |
| 20260503022203 | 59 | 0 | 0.0 | 0.0 | 0.00 | 0.00 | 0.00 | 61 | 1020.8 |
| 20260503022103 | 59 | 0 | 0.0 | 0.0 | 0.00 | 0.00 | 0.00 | 61 | 1020.8 |
| 20260503022003 | 59 | 0 | 0.0 | 0.0 | 0.00 | 0.00 | 0.00 | 60 | 1020.8 |
| 20260503021903 | 59 | 0 | 0.0 | 0.0 | 0.00 | 0.00 | 0.00 | 60 | 1020.9 |
| 20260503021803 | 59 | 0 | 0.0 | 0.0 | 0.00 | 0.00 | 0.00 | 60 | 1020.8 |
| 20260503021703 | 59 | 0 | 0.0 | 0.0 | 0.00 | 0.00 | 0.00 | 60 | 1020.8 |
| 20260503021603 | 59 | 292 | 0.0 | 3.0 | 0.00 | 0.00 | 0.00 | 60 | 1020.9 |
| 20260503021503 | 59 | 292 | 0.0 | 3.0 | 0.00 | 0.00 | 0.00 | 60 | 1020.9 |
| 20260503021403 | 59 | 292 | 0.0 | 3.0 | 0.00 | 0.00 | 0.00 | 60 | 1020.9 |
| 20260503021303 | 59 | 292 | 0.0 | 3.0 | 0.00 | 0.00 | 0.00 | 60 | 1020.9 |
| 20260503021203 | 59 | 292 | 0.0 | 3.0 | 0.00 | 0.00 | 0.00 | 60 | 1020.9 |
| 20260503021103 | 59 | 292 | 0.0 | 3.0 | 0.00 | 0.00 | 0.00 | 60 | 1020.9 |
| 20260503021003 | 59 | 292 | 0.0 | 3.0 | 0.00 | 0.00 | 0.00 | 60 | 1020.9 |
| 20260503020903 | 59 | 292 | 0.0 | 3.0 | 0.00 | 0.00 | 0.00 | 60 | 1020.9 |
| 20260503020803 | 59 | 292 | 0.0 | 3.0 | 0.00 | 0.00 | 0.00 | 60 | 1020.9 |
| 20260503020703 | 59 | 292 | 0.0 | 5.0 | 0.00 | 0.00 | 0.00 | 60 | 1020.9 |
| 20260503020603 | 59 | 292 | 0.0 | 5.0 | 0.00 | 0.00 | 0.00 | 60 | 1020.8 |
| 20260503020503 | 59 | 281 | 0.0 | 5.0 | 0.00 | 0.00 | 0.00 | 60 | 1020.9 |
| 20260503020403 | 59 | 281 | 0.0 | 5.0 | 0.00 | 0.00 | 0.00 | 60 | 1020.9 |
| 20260503020303 | 59 | 281 | 0.0 | 5.0 | 0.00 | 0.00 | 0.00 | 60 | 1020.9 |
| 20260503020203 | 59 | 281 | 0.0 | 5.0 | 0.00 | 0.00 | 0.00 | 60 | 1020.9 |
| 20260503020003 | 59 | 281 | 0.0 | 5.0 | 0.00 | 0.00 | 0.00 | 60 | 1021.0 |
| 20260503015903 | 59 | 281 | 0.0 | 5.0 | 0.00 | 0.00 | 0.00 | 60 | 1021.0 |
| 20260503015803 | 59 | 281 | 0.0 | 5.0 | 0.00 | 0.00 | 0.00 | 60 | 1020.9 |
| 20260503015703 | 59 | 277 | 0.0 | 4.0 | 0.00 | 0.00 | 0.00 | 60 | 1021.0 |
| 20260503015603 | 59 | 277 | 0.0 | 4.0 | 0.00 | 0.00 | 0.00 | 60 | 1021.0 |
| 20260503015503 | 59 | 292 | 0.0 | 2.0 | 0.00 | 0.00 | 0.00 | 60 | 1021.0 |
| 20260503015403 | 59 | 292 | 0.0 | 2.0 | 0.00 | 0.00 | 0.00 | 60 | 1021.1 |
| 20260503015305 | 59 | 292 | 0.0 | 2.0 | 0.00 | 0.00 | 0.00 | 60 | 1021.0 |
| 20260503015203 | 59 | 292 | 0.0 | 2.0 | 0.00 | 0.00 | 0.00 | 60 | 1021.0 |
| 20260503015103 | 59 | 292 | 0.0 | 2.0 | 0.00 | 0.00 | 0.00 | 60 | 1021.0 |
| 20260503015003 | 59 | 292 | 0.0 | 2.0 | 0.00 | 0.00 | 0.00 | 60 | 1021.1 |
| 20260503014903 | 59 | 292 | 0.0 | 2.0 | 0.00 | 0.00 | 0.00 | 60 | 1021.0 |
| 20260503014803 | 59 | 292 | 0.0 | 2.0 | 0.00 | 0.00 | 0.00 | 60 | 1020.9 |
| 20260503014703 | 59 | 292 | 0.0 | 2.0 | 0.00 | 0.00 | 0.00 | 59 | 1021.0 |
| 20260503014603 | 59 | 292 | 0.0 | 2.0 | 0.00 | 0.00 | 0.00 | 59 | 1021.0 |
| 20260503014503 | 59 | 292 | 0.0 | 2.0 | 0.00 | 0.00 | 0.00 | 59 | 1021.0 |
| 20260503014403 | 59 | 292 | 0.0 | 2.0 | 0.00 | 0.00 | 0.00 | 59 | 1021.0 |
| 20260503014303 | 59 | 292 | 0.0 | 2.0 | 0.00 | 0.00 | 0.00 | 59 | 1021.0 |
| 20260503014203 | 59 | 292 | 0.0 | 2.0 | 0.00 | 0.00 | 0.00 | 59 | 1021.0 |
| 20260503014103 | 59 | 292 | 0.0 | 5.0 | 0.00 | 0.00 | 0.00 | 59 | 1021.0 |
| 20260503014004 | 59 | 292 | 0.0 | 5.0 | 0.00 | 0.00 | 0.00 | 59 | 1021.0 |
| 20260503013904 | 59 | 292 | 0.0 | 5.0 | 0.00 | 0.00 | 0.00 | 59 | 1021.0 |
| 20260503013804 | 59 | 292 | 0.0 | 5.0 | 0.00 | 0.00 | 0.00 | 59 | 1020.9 |
| 20260503013704 | 59 | 292 | 0.0 | 5.0 | 0.00 | 0.00 | 0.00 | 59 | 1020.8 |
| 20260503013604 | 59 | 292 | 0.0 | 5.0 | 0.00 | 0.00 | 0.00 | 59 | 1021.0 |
| 20260503013504 | 59 | 286 | 0.0 | 6.0 | 0.00 | 0.00 | 0.00 | 59 | 1021.0 |
| 20260503013408 | 59 | 288 | 1.0 | 6.0 | 0.00 | 0.00 | 0.00 | 59 | 1021.0 |
| 20260503013304 | 59 | 288 | 1.0 | 6.0 | 0.00 | 0.00 | 0.00 | 59 | 1020.9 |
| 20260503013204 | 59 | 288 | 1.0 | 6.0 | 0.00 | 0.00 | 0.00 | 59 | 1020.9 |
| 20260503013104 | 59 | 288 | 1.0 | 6.0 | 0.00 | 0.00 | 0.00 | 59 | 1020.9 |
| 20260503013004 | 59 | 288 | 1.0 | 6.0 | 0.00 | 0.00 | 0.00 | 59 | 1020.8 |
| 20260503012904 | 59 | 288 | 1.0 | 6.0 | 0.00 | 0.00 | 0.00 | 59 | 1020.9 |
| 20260503012804 | 59 | 288 | 1.0 | 6.0 | 0.00 | 0.00 | 0.00 | 59 | 1021.0 |
| 20260503012704 | 59 | 288 | 1.0 | 6.0 | 0.00 | 0.00 | 0.00 | 59 | 1020.9 |
| 20260503012604 | 59 | 287 | 1.0 | 6.0 | 0.00 | 0.00 | 0.00 | 59 | 1020.9 |
| 20260503012504 | 59 | 292 | 0.0 | 4.0 | 0.00 | 0.00 | 0.00 | 59 | 1021.0 |
| 20260503012404 | 59 | 292 | 0.0 | 2.0 | 0.00 | 0.00 | 0.00 | 59 | 1021.0 |
| 20260503012305 | 59 | 292 | 0.0 | 2.0 | 0.00 | 0.00 | 0.00 | 59 | 1021.0 |
| 20260503012204 | 59 | 292 | 0.0 | 2.0 | 0.00 | 0.00 | 0.00 | 59 | 1021.0 |
| 20260503012104 | 59 | 292 | 0.0 | 2.0 | 0.00 | 0.00 | 0.00 | 59 | 1021.0 |
| 20260503012004 | 59 | 292 | 0.0 | 2.0 | 0.00 | 0.00 | 0.00 | 59 | 1021.1 |
| 20260503011904 | 59 | 292 | 0.0 | 2.0 | 0.00 | 0.00 | 0.00 | 59 | 1021.1 |
| 20260503011804 | 59 | 292 | 0.0 | 2.0 | 0.00 | 0.00 | 0.00 | 59 | 1021.1 |
| 20260503011704 | 59 | 292 | 0.0 | 2.0 | 0.00 | 0.00 | 0.00 | 59 | 1021.1 |
| 20260503011604 | 59 | 292 | 0.0 | 2.0 | 0.00 | 0.00 | 0.00 | 59 | 1021.1 |
| 20260503011504 | 59 | 292 | 0.0 | 2.0 | 0.00 | 0.00 | 0.00 | 59 | 1021.1 |
| 20260503011404 | 59 | 292 | 0.0 | 2.0 | 0.00 | 0.00 | 0.00 | 59 | 1021.1 |
| 20260503011304 | 59 | 292 | 0.0 | 2.0 | 0.00 | 0.00 | 0.00 | 59 | 1021.1 |
| 20260503011204 | 59 | 292 | 0.0 | 2.0 | 0.00 | 0.00 | 0.00 | 59 | 1021.1 |
| 20260503011104 | 59 | 292 | 0.0 | 2.0 | 0.00 | 0.00 | 0.00 | 59 | 1021.0 |
| 20260503011004 | 59 | 292 | 0.0 | 2.0 | 0.00 | 0.00 | 0.00 | 59 | 1021.0 |
| 20260503010904 | 59 | 292 | 0.0 | 2.0 | 0.00 | 0.00 | 0.00 | 59 | 1021.1 |
| 20260503010804 | 59 | 292 | 0.0 | 1.0 | 0.00 | 0.00 | 0.00 | 59 | 1021.1 |
| 20260503010704 | 59 | 292 | 0.0 | 2.0 | 0.00 | 0.00 | 0.00 | 59 | 1021.1 |
| 20260503010604 | 59 | 292 | 0.0 | 2.0 | 0.00 | 0.00 | 0.00 | 59 | 1021.1 |
| 20260503010504 | 59 | 292 | 0.0 | 2.0 | 0.00 | 0.00 | 0.00 | 59 | 1021.1 |
| 20260503010404 | 59 | 292 | 0.0 | 2.0 | 0.00 | 0.00 | 0.00 | 59 | 1021.1 |
| 20260503010304 | 59 | 292 | 0.0 | 2.0 | 0.00 | 0.00 | 0.00 | 59 | 1021.1 |
| 20260503010204 | 59 | 292 | 0.0 | 2.0 | 0.00 | 0.00 | 0.00 | 59 | 1021.2 |
| 20260503010104 | 59 | 292 | 0.0 | 2.0 | 0.00 | 0.00 | 0.00 | 59 | 1021.2 |
| 20260503010004 | 59 | 292 | 0.0 | 2.0 | 0.00 | 0.00 | 0.00 | 59 | 1021.2 |
| 20260503005903 | 59 | 292 | 0.0 | 2.0 | 0.00 | 0.00 | 0.00 | 59 | 1021.2 |
| 20260503005804 | 59 | 292 | 0.0 | 2.0 | 0.00 | 0.00 | 0.00 | 59 | 1021.2 |
| 20260503005704 | 59 | 292 | 0.0 | 1.0 | 0.00 | 0.00 | 0.00 | 59 | 1021.3 |
| 20260503005604 | 59 | 292 | 0.0 | 1.0 | 0.00 | 0.00 | 0.00 | 59 | 1021.4 |
| 20260503005504 | 59 | 292 | 0.0 | 1.0 | 0.00 | 0.00 | 0.00 | 59 | 1021.3 |
| 20260503005403 | 59 | 292 | 0.0 | 1.0 | 0.00 | 0.00 | 0.00 | 58 | 1021.3 |
| 20260503005304 | 59 | 292 | 0.0 | 1.0 | 0.00 | 0.00 | 0.00 | 58 | 1021.3 |
| 20260503005204 | 59 | 308 | 0.0 | 3.0 | 0.00 | 0.00 | 0.00 | 58 | 1021.3 |
| 20260503005103 | 59 | 308 | 0.0 | 3.0 | 0.00 | 0.00 | 0.00 | 58 | 1021.2 |
| 20260503005003 | 59 | 308 | 0.0 | 3.0 | 0.00 | 0.00 | 0.00 | 58 | 1021.2 |
| 20260503004903 | 59 | 308 | 0.0 | 3.0 | 0.00 | 0.00 | 0.00 | 58 | 1021.3 |
| 20260503004803 | 60 | 308 | 0.0 | 3.0 | 0.00 | 0.00 | 0.00 | 58 | 1021.2 |
| 20260503004703 | 60 | 315 | 0.0 | 3.0 | 0.00 | 0.00 | 0.00 | 58 | 1021.3 |
| 20260503004603 | 60 | 315 | 0.0 | 3.0 | 0.00 | 0.00 | 0.00 | 58 | 1021.2 |
| 20260503004503 | 60 | 302 | 0.0 | 3.0 | 0.00 | 0.00 | 0.00 | 58 | 1021.3 |
| 20260503004403 | 60 | 302 | 0.0 | 3.0 | 0.00 | 0.00 | 0.00 | 58 | 1021.3 |
| 20260503004303 | 60 | 302 | 0.0 | 3.0 | 0.00 | 0.00 | 0.00 | 58 | 1021.3 |
| 20260503004204 | 60 | 270 | 0.0 | 1.0 | 0.00 | 0.00 | 0.00 | 58 | 1021.4 |
| 20260503004103 | 60 | 291 | 0.0 | 4.0 | 0.00 | 0.00 | 0.00 | 58 | 1021.3 |
| 20260503004004 | 60 | 291 | 0.0 | 4.0 | 0.00 | 0.00 | 0.00 | 58 | 1021.3 |
| 20260503003903 | 60 | 291 | 0.0 | 4.0 | 0.00 | 0.00 | 0.00 | 58 | 1021.3 |
| 20260503003803 | 60 | 291 | 0.0 | 4.0 | 0.00 | 0.00 | 0.00 | 58 | 1021.4 |
| 20260503003703 | 60 | 291 | 0.0 | 4.0 | 0.00 | 0.00 | 0.00 | 58 | 1021.4 |
| 20260503003603 | 60 | 291 | 0.0 | 4.0 | 0.00 | 0.00 | 0.00 | 58 | 1021.3 |
| 20260503003503 | 60 | 295 | 0.0 | 4.0 | 0.00 | 0.00 | 0.00 | 58 | 1021.4 |
| 20260503003403 | 60 | 295 | 0.0 | 4.0 | 0.00 | 0.00 | 0.00 | 58 | 1021.3 |
| 20260503003303 | 60 | 295 | 0.0 | 4.0 | 0.00 | 0.00 | 0.00 | 58 | 1021.4 |
| 20260503003203 | 60 | 295 | 0.0 | 4.0 | 0.00 | 0.00 | 0.00 | 58 | 1021.4 |
| 20260503003103 | 60 | 315 | 0.0 | 2.0 | 0.00 | 0.00 | 0.00 | 58 | 1021.4 |
| 20260503003003 | 60 | 301 | 0.0 | 2.0 | 0.00 | 0.00 | 0.00 | 58 | 1021.4 |
| 20260503002903 | 60 | 301 | 0.0 | 2.0 | 0.00 | 0.00 | 0.00 | 58 | 1021.4 |
| 20260503002803 | 60 | 301 | 0.0 | 2.0 | 0.00 | 0.00 | 0.00 | 58 | 1021.4 |
| 20260503002703 | 60 | 301 | 0.0 | 2.0 | 0.00 | 0.00 | 0.00 | 58 | 1021.4 |
| 20260503002603 | 60 | 301 | 0.0 | 2.0 | 0.00 | 0.00 | 0.00 | 58 | 1021.4 |
| 20260503002503 | 60 | 292 | 0.0 | 2.0 | 0.00 | 0.00 | 0.00 | 58 | 1021.4 |
| 20260503002403 | 60 | 292 | 0.0 | 2.0 | 0.00 | 0.00 | 0.00 | 58 | 1021.4 |
| 20260503002305 | 60 | 292 | 0.0 | 2.0 | 0.00 | 0.00 | 0.00 | 58 | 1021.4 |
| 20260503002203 | 60 | 292 | 0.0 | 2.0 | 0.00 | 0.00 | 0.00 | 58 | 1021.3 |
| 20260503002103 | 60 | 292 | 0.0 | 2.0 | 0.00 | 0.00 | 0.00 | 58 | 1021.4 |
| 20260503002003 | 60 | 0 | 0.0 | 0.0 | 0.00 | 0.00 | 0.00 | 58 | 1021.4 |
| 20260503001903 | 60 | 0 | 0.0 | 0.0 | 0.00 | 0.00 | 0.00 | 58 | 1021.4 |
| 20260503001803 | 60 | 0 | 0.0 | 0.0 | 0.00 | 0.00 | 0.00 | 58 | 1021.6 |
| 20260503001703 | 60 | 0 | 0.0 | 0.0 | 0.00 | 0.00 | 0.00 | 58 | 1021.4 |
| 20260503001603 | 60 | 0 | 0.0 | 0.0 | 0.00 | 0.00 | 0.00 | 58 | 1021.4 |
| 20260503001503 | 60 | 0 | 0.0 | 0.0 | 0.00 | 0.00 | 0.00 | 58 | 1021.4 |
| 20260503001403 | 60 | 0 | 0.0 | 0.0 | 0.00 | 0.00 | 0.00 | 58 | 1021.4 |
| 20260503001303 | 60 | 0 | 0.0 | 0.0 | 0.00 | 0.00 | 0.00 | 58 | 1021.4 |
| 20260503001203 | 60 | 0 | 0.0 | 0.0 | 0.00 | 0.00 | 0.00 | 58 | 1021.5 |
| 20260503001103 | 60 | 0 | 0.0 | 0.0 | 0.00 | 0.00 | 0.00 | 58 | 1021.6 |
| 20260503001003 | 60 | 0 | 0.0 | 0.0 | 0.00 | 0.00 | 0.00 | 58 | 1021.5 |
| 20260503000903 | 60 | 0 | 0.0 | 0.0 | 0.00 | 0.00 | 0.00 | 58 | 1021.4 |
| 20260503000803 | 60 | 0 | 0.0 | 0.0 | 0.00 | 0.00 | 0.00 | 58 | 1021.5 |
| 20260503000703 | 60 | 0 | 0.0 | 0.0 | 0.00 | 0.00 | 0.00 | 58 | 1021.4 |
| 20260503000603 | 59 | 0 | 0.0 | 0.0 | 0.00 | 0.00 | 0.00 | 58 | 1021.4 |
| 20260503000503 | 59 | 0 | 0.0 | 0.0 | 0.00 | 0.00 | 0.00 | 58 | 1021.6 |
| 20260503000403 | 60 | 0 | 0.0 | 0.0 | 0.00 | 0.00 | 0.00 | 58 | 1021.5 |
| 20260503000304 | 59 | 315 | 0.0 | 2.0 | 0.00 | 0.00 | 0.00 | 58 | 1021.6 |
| 20260503000204 | 60 | 315 | 0.0 | 2.0 | 0.00 | 0.00 | 0.00 | 58 | 1021.5 |
| 20260503000103 | 59 | 315 | 0.0 | 2.0 | 0.00 | 0.00 | 0.00 | 58 | 1021.6 |
| 20260503000003 | 59 | 315 | 0.0 | 2.0 | 0.00 | 0.00 | 0.00 | 58 | 1021.6 |
| 20260502235903 | 59 | 315 | 0.0 | 2.0 | 0.00 | 0.00 | 0.00 | 58 | 1021.6 |
| 20260502235803 | 59 | 315 | 0.0 | 2.0 | 0.00 | 0.00 | 0.00 | 58 | 1021.6 |
| 20260502235703 | 59 | 315 | 0.0 | 2.0 | 0.00 | 0.00 | 0.00 | 58 | 1021.7 |
| 20260502235603 | 59 | 315 | 0.0 | 2.0 | 0.00 | 0.00 | 0.00 | 57 | 1021.6 |
| 20260502235503 | 59 | 315 | 0.0 | 2.0 | 0.00 | 0.00 | 0.00 | 58 | 1021.7 |
| 20260502235403 | 59 | 315 | 0.0 | 2.0 | 0.00 | 0.00 | 0.00 | 58 | 1021.7 |
| 20260502235304 | 59 | 0 | 0.0 | 0.0 | 0.00 | 0.00 | 0.00 | 58 | 1021.7 |
| 20260502235203 | 60 | 0 | 0.0 | 0.0 | 0.00 | 0.00 | 0.00 | 58 | 1021.8 |
| 20260502235103 | 60 | 0 | 0.0 | 0.0 | 0.00 | 0.00 | 0.00 | 58 | 1021.7 |
| 20260502235003 | 60 | 0 | 0.0 | 0.0 | 0.00 | 0.00 | 0.00 | 57 | 1021.7 |
| 20260502234903 | 60 | 0 | 0.0 | 0.0 | 0.00 | 0.00 | 0.00 | 58 | 1021.7 |
| 20260502234803 | 60 | 0 | 0.0 | 0.0 | 0.00 | 0.00 | 0.00 | 57 | 1021.8 |
| 20260502234703 | 60 | 0 | 0.0 | 0.0 | 0.00 | 0.00 | 0.00 | 58 | 1021.8 |
| 20260502234603 | 60 | 0 | 0.0 | 0.0 | 0.00 | 0.00 | 0.00 | 57 | 1021.8 |
| 20260502234503 | 60 | 0 | 0.0 | 0.0 | 0.00 | 0.00 | 0.00 | 57 | 1021.8 |
| 20260502234403 | 60 | 292 | 0.0 | 4.0 | 0.00 | 0.00 | 0.00 | 58 | 1021.7 |
| 20260502234303 | 60 | 292 | 0.0 | 4.0 | 0.00 | 0.00 | 0.00 | 57 | 1021.7 |
| 20260502234203 | 60 | 292 | 0.0 | 4.0 | 0.00 | 0.00 | 0.00 | 57 | 1021.7 |
| 20260502234103 | 60 | 292 | 0.0 | 4.0 | 0.00 | 0.00 | 0.00 | 58 | 1021.8 |
| 20260502234003 | 60 | 292 | 0.0 | 4.0 | 0.00 | 0.00 | 0.00 | 57 | 1021.9 |
| 20260502233903 | 60 | 292 | 0.0 | 4.0 | 0.00 | 0.00 | 0.00 | 57 | 1021.9 |
| 20260502233803 | 60 | 292 | 0.0 | 4.0 | 0.00 | 0.00 | 0.00 | 58 | 1021.8 |
| 20260502233703 | 60 | 292 | 0.0 | 4.0 | 0.00 | 0.00 | 0.00 | 58 | 1021.8 |
| 20260502233603 | 60 | 292 | 0.0 | 4.0 | 0.00 | 0.00 | 0.00 | 57 | 1022.0 |
| 20260502233503 | 60 | 292 | 0.0 | 4.0 | 0.00 | 0.00 | 0.00 | 57 | 1021.9 |
| 20260502233403 | 60 | 292 | 0.0 | 3.0 | 0.00 | 0.00 | 0.00 | 58 | 1022.0 |
| 20260502233303 | 60 | 292 | 0.0 | 3.0 | 0.00 | 0.00 | 0.00 | 58 | 1022.0 |
| 20260502233203 | 60 | 292 | 0.0 | 3.0 | 0.00 | 0.00 | 0.00 | 58 | 1022.1 |
| 20260502233103 | 60 | 292 | 0.0 | 3.0 | 0.00 | 0.00 | 0.00 | 58 | 1022.0 |
| 20260502233003 | 60 | 292 | 0.0 | 3.0 | 0.00 | 0.00 | 0.00 | 58 | 1022.0 |
| 20260502232904 | 60 | 292 | 0.0 | 3.0 | 0.00 | 0.00 | 0.00 | 58 | 1022.1 |
| 20260502232804 | 60 | 292 | 0.0 | 3.0 | 0.00 | 0.00 | 0.00 | 58 | 1022.0 |
| 20260502232704 | 60 | 292 | 0.0 | 3.0 | 0.00 | 0.00 | 0.00 | 58 | 1022.0 |
| 20260502232604 | 60 | 293 | 0.0 | 3.0 | 0.00 | 0.00 | 0.00 | 58 | 1022.1 |
| 20260502232504 | 60 | 293 | 0.0 | 3.0 | 0.00 | 0.00 | 0.00 | 58 | 1022.0 |
| 20260502232404 | 60 | 294 | 0.0 | 1.0 | 0.00 | 0.00 | 0.00 | 58 | 1022.0 |
| 20260502232305 | 60 | 294 | 0.0 | 1.0 | 0.00 | 0.00 | 0.00 | 58 | 1022.0 |
| 20260502232204 | 59 | 293 | 0.0 | 1.0 | 0.00 | 0.00 | 0.00 | 58 | 1022.2 |
| 20260502232104 | 60 | 293 | 0.0 | 1.0 | 0.00 | 0.00 | 0.00 | 58 | 1022.1 |
| 20260502232004 | 59 | 293 | 0.0 | 1.0 | 0.00 | 0.00 | 0.00 | 58 | 1022.1 |
| 20260502231904 | 60 | 293 | 0.0 | 1.0 | 0.00 | 0.00 | 0.00 | 58 | 1022.2 |
| 20260502231804 | 60 | 293 | 0.0 | 2.0 | 0.00 | 0.00 | 0.00 | 58 | 1022.2 |
| 20260502231704 | 60 | 293 | 0.0 | 2.0 | 0.00 | 0.00 | 0.00 | 58 | 1022.2 |
| 20260502231604 | 60 | 292 | 0.0 | 2.0 | 0.00 | 0.00 | 0.00 | 58 | 1022.0 |
| 20260502231504 | 60 | 292 | 0.0 | 2.0 | 0.00 | 0.00 | 0.00 | 58 | 1022.2 |
| 20260502231404 | 60 | 292 | 0.0 | 2.0 | 0.00 | 0.00 | 0.00 | 58 | 1022.2 |
| 20260502231304 | 60 | 292 | 0.0 | 2.0 | 0.00 | 0.00 | 0.00 | 58 | 1022.2 |
| 20260502231204 | 60 | 292 | 0.0 | 2.0 | 0.00 | 0.00 | 0.00 | 58 | 1022.2 |
| 20260502231004 | 60 | 292 | 0.0 | 6.0 | 0.00 | 0.00 | 0.00 | 58 | 1022.3 |
| 20260502230903 | 60 | 292 | 0.0 | 6.0 | 0.00 | 0.00 | 0.00 | 58 | 1022.3 |
| 20260502230803 | 60 | 292 | 0.0 | 6.0 | 0.00 | 0.00 | 0.00 | 58 | 1022.3 |
| 20260502230703 | 60 | 292 | 0.0 | 4.0 | 0.00 | 0.00 | 0.00 | 58 | 1022.2 |
| 20260502230603 | 60 | 292 | 0.0 | 4.0 | 0.00 | 0.00 | 0.00 | 58 | 1022.2 |
| 20260502230503 | 60 | 292 | 0.0 | 2.0 | 0.00 | 0.00 | 0.00 | 58 | 1022.3 |
| 20260502230403 | 60 | 0 | 0.0 | 0.0 | 0.00 | 0.00 | 0.00 | 58 | 1022.3 |
| 20260502230303 | 60 | 0 | 0.0 | 0.0 | 0.00 | 0.00 | 0.00 | 58 | 1022.2 |
| 20260502230203 | 60 | 0 | 0.0 | 0.0 | 0.00 | 0.00 | 0.00 | 58 | 1022.3 |
| 20260502230103 | 60 | 292 | 0.0 | 3.0 | 0.00 | 0.00 | 0.00 | 58 | 1022.2 |
| 20260502230004 | 60 | 292 | 0.0 | 3.0 | 0.00 | 0.00 | 0.00 | 58 | 1022.3 |
| 20260502225903 | 60 | 292 | 0.0 | 3.0 | 0.00 | 0.00 | 0.00 | 58 | 1022.3 |
| 20260502225803 | 60 | 295 | 0.0 | 3.0 | 0.00 | 0.00 | 0.00 | 58 | 1022.3 |
| 20260502225703 | 60 | 295 | 0.0 | 3.0 | 0.00 | 0.00 | 0.00 | 58 | 1022.3 |
| 20260502225605 | 60 | 295 | 0.0 | 3.0 | 0.00 | 0.00 | 0.00 | 58 | 1022.4 |
| 20260502225503 | 60 | 295 | 0.0 | 3.0 | 0.00 | 0.00 | 0.00 | 58 | 1022.4 |
| 20260502225403 | 60 | 295 | 0.0 | 3.0 | 0.00 | 0.00 | 0.00 | 58 | 1022.5 |
| 20260502225304 | 60 | 293 | 0.0 | 3.0 | 0.00 | 0.00 | 0.00 | 58 | 1022.4 |
| 20260502225203 | 60 | 293 | 0.0 | 4.0 | 0.00 | 0.00 | 0.00 | 58 | 1022.4 |
| 20260502225103 | 60 | 293 | 0.0 | 4.0 | 0.00 | 0.00 | 0.00 | 58 | 1022.4 |
| 20260502225003 | 60 | 298 | 0.0 | 5.0 | 0.00 | 0.00 | 0.00 | 58 | 1022.4 |
| 20260502224903 | 60 | 298 | 0.0 | 5.0 | 0.00 | 0.00 | 0.00 | 57 | 1022.4 |
| 20260502224803 | 60 | 297 | 0.0 | 5.0 | 0.00 | 0.00 | 0.00 | 58 | 1022.4 |
| 20260502224703 | 60 | 295 | 0.0 | 5.0 | 0.00 | 0.00 | 0.00 | 57 | 1022.4 |
| 20260502224603 | 60 | 295 | 0.0 | 5.0 | 0.00 | 0.00 | 0.00 | 57 | 1022.3 |
| 20260502224503 | 60 | 295 | 0.0 | 5.0 | 0.00 | 0.00 | 0.00 | 57 | 1022.5 |
| 20260502224403 | 60 | 295 | 0.0 | 5.0 | 0.00 | 0.00 | 0.00 | 57 | 1022.5 |
| 20260502224303 | 60 | 296 | 0.0 | 5.0 | 0.00 | 0.00 | 0.00 | 57 | 1022.5 |
| 20260502224203 | 60 | 296 | 0.0 | 5.0 | 0.00 | 0.00 | 0.00 | 57 | 1022.4 |
| 20260502224103 | 60 | 296 | 0.0 | 5.0 | 0.00 | 0.00 | 0.00 | 57 | 1022.4 |
| 20260502224003 | 60 | 288 | 0.0 | 4.0 | 0.00 | 0.00 | 0.00 | 57 | 1022.4 |
| 20260502223903 | 60 | 289 | 0.0 | 4.0 | 0.00 | 0.00 | 0.00 | 57 | 1022.4 |
| 20260502223803 | 60 | 289 | 0.0 | 4.0 | 0.00 | 0.00 | 0.00 | 57 | 1022.4 |
| 20260502223703 | 60 | 292 | 0.0 | 4.0 | 0.00 | 0.00 | 0.00 | 57 | 1022.5 |
| 20260502223603 | 60 | 292 | 0.0 | 4.0 | 0.00 | 0.00 | 0.00 | 57 | 1022.5 |
| 20260502223503 | 60 | 292 | 0.0 | 4.0 | 0.00 | 0.00 | 0.00 | 57 | 1022.5 |
| 20260502223403 | 60 | 292 | 0.0 | 4.0 | 0.00 | 0.00 | 0.00 | 57 | 1022.5 |
| 20260502223303 | 60 | 292 | 0.0 | 4.0 | 0.00 | 0.00 | 0.00 | 57 | 1022.5 |
| 20260502223203 | 60 | 292 | 0.0 | 2.0 | 0.00 | 0.00 | 0.00 | 57 | 1022.5 |
| 20260502223103 | 60 | 292 | 0.0 | 2.0 | 0.00 | 0.00 | 0.00 | 57 | 1022.5 |
| 20260502223003 | 60 | 292 | 0.0 | 2.0 | 0.00 | 0.00 | 0.00 | 57 | 1022.5 |
| 20260502222903 | 60 | 294 | 0.0 | 2.0 | 0.00 | 0.00 | 0.00 | 57 | 1022.5 |
| 20260502222803 | 60 | 294 | 0.0 | 2.0 | 0.00 | 0.00 | 0.00 | 57 | 1022.5 |
| 20260502222703 | 60 | 294 | 0.0 | 2.0 | 0.00 | 0.00 | 0.00 | 57 | 1022.4 |
| 20260502222603 | 60 | 294 | 0.0 | 2.0 | 0.00 | 0.00 | 0.00 | 57 | 1022.5 |
| 20260502222503 | 60 | 294 | 0.0 | 2.0 | 0.00 | 0.00 | 0.00 | 57 | 1022.5 |
| 20260502222403 | 60 | 294 | 0.0 | 2.0 | 0.00 | 0.00 | 0.00 | 57 | 1022.4 |
| 20260502222305 | 59 | 294 | 0.0 | 2.0 | 0.00 | 0.00 | 0.00 | 57 | 1022.5 |
| 20260502222203 | 60 | 303 | 0.0 | 2.0 | 0.00 | 0.00 | 0.00 | 57 | 1022.5 |
| 20260502222103 | 60 | 307 | 0.0 | 2.0 | 0.00 | 0.00 | 0.00 | 57 | 1022.6 |
| 20260502222003 | 59 | 307 | 0.0 | 2.0 | 0.00 | 0.00 | 0.00 | 57 | 1022.6 |
| 20260502221903 | 59 | 311 | 0.0 | 2.0 | 0.00 | 0.00 | 0.00 | 57 | 1022.5 |
| 20260502221803 | 60 | 337 | 0.0 | 1.0 | 0.00 | 0.00 | 0.00 | 57 | 1022.5 |
| 20260502221703 | 59 | 337 | 0.0 | 1.0 | 0.00 | 0.00 | 0.00 | 57 | 1022.5 |
| 20260502221603 | 59 | 337 | 0.0 | 1.0 | 0.00 | 0.00 | 0.00 | 57 | 1022.5 |
| 20260502221503 | 59 | 337 | 0.0 | 1.0 | 0.00 | 0.00 | 0.00 | 57 | 1022.5 |
| 20260502221403 | 59 | 337 | 0.0 | 1.0 | 0.00 | 0.00 | 0.00 | 57 | 1022.5 |
| 20260502221303 | 59 | 337 | 0.0 | 1.0 | 0.00 | 0.00 | 0.00 | 57 | 1022.5 |
| 20260502221203 | 59 | 0 | 0.0 | 0.0 | 0.00 | 0.00 | 0.00 | 57 | 1022.5 |
| 20260502221103 | 59 | 0 | 0.0 | 0.0 | 0.00 | 0.00 | 0.00 | 57 | 1022.5 |
| 20260502221003 | 59 | 0 | 0.0 | 0.0 | 0.00 | 0.00 | 0.00 | 57 | 1022.5 |
| 20260502220903 | 59 | 0 | 0.0 | 0.0 | 0.00 | 0.00 | 0.00 | 57 | 1022.5 |
| 20260502220803 | 60 | 0 | 0.0 | 0.0 | 0.00 | 0.00 | 0.00 | 57 | 1022.5 |
| 20260502220703 | 60 | 0 | 0.0 | 0.0 | 0.00 | 0.00 | 0.00 | 57 | 1022.5 |
| 20260502220603 | 60 | 0 | 0.0 | 0.0 | 0.00 | 0.00 | 0.00 | 57 | 1022.5 |
| 20260502220503 | 59 | 0 | 0.0 | 0.0 | 0.00 | 0.00 | 0.00 | 57 | 1022.5 |
| 20260502220403 | 59 | 0 | 0.0 | 0.0 | 0.00 | 0.00 | 0.00 | 57 | 1022.5 |
| 20260502220303 | 60 | 0 | 0.0 | 0.0 | 0.00 | 0.00 | 0.00 | 57 | 1022.4 |
| 20260502220203 | 59 | 0 | 0.0 | 0.0 | 0.00 | 0.00 | 0.00 | 57 | 1022.5 |
| 20260502220038 | 59 | 0 | 0.0 | 0.0 | 0.00 | 0.00 | 0.00 | 57 | 1022.5 |
| 20260502215903 | 59 | 0 | 0.0 | 0.0 | 0.00 | 0.00 | 0.00 | 57 | 1022.5 |
| 20260502215803 | 59 | 0 | 0.0 | 0.0 | 0.00 | 0.00 | 0.00 | 57 | 1022.5 |
| 20260502215703 | 59 | 0 | 0.0 | 0.0 | 0.00 | 0.00 | 0.00 | 57 | 1022.5 |
| 20260502215603 | 60 | 0 | 0.0 | 0.0 | 0.00 | 0.00 | 0.00 | 57 | 1022.5 |
| 20260502215503 | 60 | 0 | 0.0 | 0.0 | 0.00 | 0.00 | 0.00 | 57 | 1022.4 |
| 20260502215403 | 60 | 0 | 0.0 | 0.0 | 0.00 | 0.00 | 0.00 | 57 | 1022.4 |
| 20260502215305 | 60 | 0 | 0.0 | 0.0 | 0.00 | 0.00 | 0.00 | 57 | 1022.5 |
| 20260502215203 | 60 | 0 | 0.0 | 0.0 | 0.00 | 0.00 | 0.00 | 57 | 1022.5 |
| 20260502215103 | 60 | 0 | 0.0 | 0.0 | 0.00 | 0.00 | 0.00 | 57 | 1022.5 |
| 20260502215003 | 60 | 0 | 0.0 | 0.0 | 0.00 | 0.00 | 0.00 | 57 | 1022.5 |
| 20260502214903 | 60 | 0 | 0.0 | 0.0 | 0.00 | 0.00 | 0.00 | 57 | 1022.4 |
| 20260502214803 | 60 | 0 | 0.0 | 0.0 | 0.00 | 0.00 | 0.00 | 57 | 1022.5 |
| 20260502214703 | 60 | 0 | 0.0 | 0.0 | 0.00 | 0.00 | 0.00 | 57 | 1022.6 |
| 20260502214603 | 60 | 0 | 0.0 | 0.0 | 0.00 | 0.00 | 0.00 | 57 | 1022.6 |
| 20260502214503 | 60 | 0 | 0.0 | 0.0 | 0.00 | 0.00 | 0.00 | 57 | 1022.6 |
| 20260502214403 | 60 | 0 | 0.0 | 0.0 | 0.00 | 0.00 | 0.00 | 57 | 1022.5 |
| 20260502214303 | 60 | 0 | 0.0 | 0.0 | 0.00 | 0.00 | 0.00 | 57 | 1022.5 |
| 20260502214203 | 60 | 0 | 0.0 | 0.0 | 0.00 | 0.00 | 0.00 | 57 | 1022.6 |
| 20260502214103 | 60 | 0 | 0.0 | 0.0 | 0.00 | 0.00 | 0.00 | 57 | 1022.5 |
| 20260502214003 | 60 | 0 | 0.0 | 0.0 | 0.00 | 0.00 | 0.00 | 57 | 1022.5 |
| 20260502213903 | 60 | 0 | 0.0 | 0.0 | 0.00 | 0.00 | 0.00 | 57 | 1022.6 |
| 20260502213803 | 60 | 0 | 0.0 | 0.0 | 0.00 | 0.00 | 0.00 | 57 | 1022.6 |
| 20260502213703 | 60 | 0 | 0.0 | 0.0 | 0.00 | 0.00 | 0.00 | 57 | 1022.6 |
| 20260502213604 | 60 | 0 | 0.0 | 0.0 | 0.00 | 0.00 | 0.00 | 57 | 1022.6 |
| 20260502213504 | 60 | 0 | 0.0 | 0.0 | 0.00 | 0.00 | 0.00 | 57 | 1022.6 |
| 20260502213404 | 60 | 0 | 0.0 | 0.0 | 0.00 | 0.00 | 0.00 | 57 | 1022.6 |
| 20260502213304 | 60 | 0 | 0.0 | 0.0 | 0.00 | 0.00 | 0.00 | 56 | 1022.6 |
| 20260502213204 | 60 | 292 | 0.0 | 1.0 | 0.00 | 0.00 | 0.00 | 57 | 1022.6 |
| 20260502213104 | 60 | 292 | 0.0 | 1.0 | 0.00 | 0.00 | 0.00 | 57 | 1022.7 |
| 20260502213004 | 60 | 292 | 0.0 | 1.0 | 0.00 | 0.00 | 0.00 | 57 | 1022.7 |
| 20260502212904 | 60 | 292 | 0.0 | 1.0 | 0.00 | 0.00 | 0.00 | 56 | 1022.7 |
| 20260502212804 | 60 | 292 | 0.0 | 1.0 | 0.00 | 0.00 | 0.00 | 56 | 1022.8 |
| 20260502212704 | 60 | 292 | 0.0 | 1.0 | 0.00 | 0.00 | 0.00 | 56 | 1022.7 |
| 20260502212604 | 60 | 292 | 0.0 | 1.0 | 0.00 | 0.00 | 0.00 | 56 | 1022.7 |
| 20260502212504 | 60 | 292 | 0.0 | 1.0 | 0.00 | 0.00 | 0.00 | 56 | 1022.6 |
| 20260502212404 | 60 | 292 | 0.0 | 1.0 | 0.00 | 0.00 | 0.00 | 56 | 1022.7 |
| 20260502212305 | 60 | 292 | 0.0 | 1.0 | 0.00 | 0.00 | 0.00 | 56 | 1022.7 |
| 20260502212204 | 60 | 0 | 0.0 | 0.0 | 0.00 | 0.00 | 0.00 | 56 | 1022.6 |
| 20260502212104 | 60 | 0 | 0.0 | 0.0 | 0.00 | 0.00 | 0.00 | 56 | 1022.6 |
| 20260502212004 | 60 | 0 | 0.0 | 0.0 | 0.00 | 0.00 | 0.00 | 56 | 1022.5 |
| 20260502211904 | 60 | 0 | 0.0 | 0.0 | 0.00 | 0.00 | 0.00 | 56 | 1022.5 |
| 20260502211804 | 60 | 0 | 0.0 | 0.0 | 0.00 | 0.00 | 0.00 | 56 | 1022.6 |
| 20260502211704 | 60 | 0 | 0.0 | 0.0 | 0.00 | 0.00 | 0.00 | 56 | 1022.6 |
| 20260502211604 | 60 | 0 | 0.0 | 0.0 | 0.00 | 0.00 | 0.00 | 56 | 1022.6 |
| 20260502211504 | 60 | 0 | 0.0 | 0.0 | 0.00 | 0.00 | 0.00 | 56 | 1022.6 |
| 20260502211304 | 60 | 0 | 0.0 | 0.0 | 0.00 | 0.00 | 0.00 | 56 | 1022.5 |
| 20260502211104 | 60 | 0 | 0.0 | 0.0 | 0.00 | 0.00 | 0.00 | 56 | 1022.5 |
| 20260502211004 | 60 | 0 | 0.0 | 0.0 | 0.00 | 0.00 | 0.00 | 56 | 1022.4 |
| 20260502210904 | 60 | 0 | 0.0 | 0.0 | 0.00 | 0.00 | 0.00 | 56 | 1022.4 |
| 20260502210804 | 60 | 0 | 0.0 | 0.0 | 0.00 | 0.00 | 0.00 | 55 | 1022.5 |
| 20260502210704 | 60 | 0 | 0.0 | 0.0 | 0.00 | 0.00 | 0.00 | 55 | 1022.5 |
| 20260502210604 | 60 | 0 | 0.0 | 0.0 | 0.00 | 0.00 | 0.00 | 55 | 1022.5 |
| 20260502210504 | 60 | 0 | 0.0 | 0.0 | 0.00 | 0.00 | 0.00 | 55 | 1022.5 |
| 20260502210404 | 60 | 0 | 0.0 | 0.0 | 0.00 | 0.00 | 0.00 | 55 | 1022.5 |
| 20260502210304 | 60 | 0 | 0.0 | 0.0 | 0.00 | 0.00 | 0.00 | 55 | 1022.5 |
| 20260502210204 | 60 | 0 | 0.0 | 0.0 | 0.00 | 0.00 | 0.00 | 55 | 1022.5 |
| 20260502210104 | 60 | 0 | 0.0 | 0.0 | 0.00 | 0.00 | 0.00 | 55 | 1022.5 |
| 20260502210004 | 60 | 0 | 0.0 | 0.0 | 0.00 | 0.00 | 0.00 | 55 | 1022.5 |
| 20260502205904 | 60 | 0 | 0.0 | 0.0 | 0.00 | 0.00 | 0.00 | 55 | 1022.5 |
| 20260502205804 | 60 | 0 | 0.0 | 0.0 | 0.00 | 0.00 | 0.00 | 55 | 1022.5 |
| 20260502205704 | 60 | 0 | 0.0 | 0.0 | 0.00 | 0.00 | 0.00 | 55 | 1022.5 |
| 20260502205604 | 60 | 0 | 0.0 | 0.0 | 0.00 | 0.00 | 0.00 | 55 | 1022.5 |
| 20260502205504 | 60 | 0 | 0.0 | 0.0 | 0.00 | 0.00 | 0.00 | 55 | 1022.5 |
| 20260502205404 | 60 | 0 | 0.0 | 0.0 | 0.00 | 0.00 | 0.00 | 55 | 1022.5 |
| 20260502205305 | 60 | 0 | 0.0 | 0.0 | 0.00 | 0.00 | 0.00 | 55 | 1022.5 |
| 20260502205204 | 60 | 0 | 0.0 | 0.0 | 0.00 | 0.00 | 0.00 | 55 | 1022.6 |
| 20260502205104 | 60 | 0 | 0.0 | 0.0 | 0.00 | 0.00 | 0.00 | 55 | 1022.6 |
| 20260502205004 | 60 | 0 | 0.0 | 0.0 | 0.00 | 0.00 | 0.00 | 55 | 1022.5 |
| 20260502204904 | 60 | 0 | 0.0 | 0.0 | 0.00 | 0.00 | 0.00 | 55 | 1022.6 |
| 20260502204804 | 60 | 0 | 0.0 | 0.0 | 0.00 | 0.00 | 0.00 | 55 | 1022.7 |
| 20260502204704 | 60 | 0 | 0.0 | 0.0 | 0.00 | 0.00 | 0.00 | 55 | 1022.5 |
| 20260502204603 | 60 | 0 | 0.0 | 0.0 | 0.00 | 0.00 | 0.00 | 55 | 1022.6 |
| 20260502204504 | 60 | 0 | 0.0 | 0.0 | 0.00 | 0.00 | 0.00 | 55 | 1022.6 |
| 20260502204404 | 60 | 0 | 0.0 | 0.0 | 0.00 | 0.00 | 0.00 | 55 | 1022.5 |
| 20260502204304 | 60 | 0 | 0.0 | 0.0 | 0.00 | 0.00 | 0.00 | 55 | 1022.6 |
| 20260502204204 | 60 | 0 | 0.0 | 0.0 | 0.00 | 0.00 | 0.00 | 55 | 1022.5 |
| 20260502204103 | 60 | 0 | 0.0 | 0.0 | 0.00 | 0.00 | 0.00 | 55 | 1022.6 |
| 20260502204004 | 60 | 0 | 0.0 | 0.0 | 0.00 | 0.00 | 0.00 | 55 | 1022.6 |
| 20260502203904 | 60 | 0 | 0.0 | 0.0 | 0.00 | 0.00 | 0.00 | 55 | 1022.6 |
| 20260502203804 | 60 | 0 | 0.0 | 0.0 | 0.00 | 0.00 | 0.00 | 55 | 1022.6 |
| 20260502203703 | 60 | 0 | 0.0 | 0.0 | 0.00 | 0.00 | 0.00 | 55 | 1022.6 |
| 20260502203603 | 60 | 0 | 0.0 | 0.0 | 0.00 | 0.00 | 0.00 | 55 | 1022.6 |
| 20260502203503 | 60 | 0 | 0.0 | 0.0 | 0.00 | 0.00 | 0.00 | 55 | 1022.5 |
| 20260502203403 | 60 | 0 | 0.0 | 0.0 | 0.00 | 0.00 | 0.00 | 55 | 1022.6 |
| 20260502203303 | 60 | 0 | 0.0 | 0.0 | 0.00 | 0.00 | 0.00 | 55 | 1022.6 |
| 20260502203204 | 60 | 0 | 0.0 | 0.0 | 0.00 | 0.00 | 0.00 | 55 | 1022.6 |
| 20260502203103 | 60 | 0 | 0.0 | 0.0 | 0.00 | 0.00 | 0.00 | 55 | 1022.5 |
| 20260502203003 | 60 | 0 | 0.0 | 0.0 | 0.00 | 0.00 | 0.00 | 55 | 1022.5 |
| 20260502202903 | 60 | 292 | 0.0 | 1.0 | 0.00 | 0.00 | 0.00 | 55 | 1022.5 |
| 20260502202803 | 60 | 297 | 0.0 | 3.0 | 0.00 | 0.00 | 0.00 | 55 | 1022.5 |
| 20260502202703 | 60 | 295 | 0.0 | 3.0 | 0.00 | 0.00 | 0.00 | 55 | 1022.5 |
| 20260502202603 | 60 | 294 | 0.0 | 3.0 | 0.00 | 0.00 | 0.00 | 55 | 1022.6 |
| 20260502202503 | 60 | 294 | 0.0 | 3.0 | 0.00 | 0.00 | 0.00 | 55 | 1022.5 |
| 20260502202403 | 60 | 294 | 0.0 | 3.0 | 0.00 | 0.00 | 0.00 | 55 | 1022.5 |
| 20260502202305 | 60 | 298 | 0.0 | 3.0 | 0.00 | 0.00 | 0.00 | 55 | 1022.5 |
| 20260502202203 | 60 | 297 | 0.0 | 3.0 | 0.00 | 0.00 | 0.00 | 55 | 1022.6 |
| 20260502202103 | 60 | 296 | 0.0 | 4.0 | 0.00 | 0.00 | 0.00 | 55 | 1022.5 |
| 20260502202003 | 60 | 296 | 0.0 | 4.0 | 0.00 | 0.00 | 0.00 | 55 | 1022.5 |
| 20260502201903 | 60 | 296 | 0.0 | 4.0 | 0.00 | 0.00 | 0.00 | 55 | 1022.5 |
| 20260502201803 | 60 | 296 | 0.0 | 4.0 | 0.00 | 0.00 | 0.00 | 55 | 1022.5 |
| 20260502201703 | 60 | 298 | 0.0 | 4.0 | 0.00 | 0.00 | 0.00 | 55 | 1022.5 |
| 20260502201603 | 60 | 298 | 0.0 | 4.0 | 0.00 | 0.00 | 0.00 | 55 | 1022.5 |
| 20260502201503 | 60 | 298 | 0.0 | 4.0 | 0.00 | 0.00 | 0.00 | 55 | 1022.6 |
| 20260502201403 | 60 | 298 | 0.0 | 4.0 | 0.00 | 0.00 | 0.00 | 55 | 1022.5 |
| 20260502201303 | 60 | 296 | 0.0 | 4.0 | 0.00 | 0.00 | 0.00 | 54 | 1022.5 |
| 20260502201203 | 60 | 297 | 0.0 | 4.0 | 0.00 | 0.00 | 0.00 | 54 | 1022.5 |
| 20260502201103 | 60 | 299 | 0.0 | 3.0 | 0.00 | 0.00 | 0.00 | 54 | 1022.5 |
| 20260502201003 | 60 | 299 | 0.0 | 3.0 | 0.00 | 0.00 | 0.00 | 54 | 1022.5 |
| 20260502200903 | 60 | 299 | 0.0 | 3.0 | 0.00 | 0.00 | 0.00 | 54 | 1022.5 |
| 20260502200803 | 60 | 299 | 0.0 | 3.0 | 0.00 | 0.00 | 0.00 | 54 | 1022.5 |
| 20260502200703 | 60 | 292 | 0.0 | 2.0 | 0.00 | 0.00 | 0.00 | 54 | 1022.5 |
| 20260502200603 | 60 | 292 | 0.0 | 2.0 | 0.00 | 0.00 | 0.00 | 54 | 1022.5 |
| 20260502200503 | 60 | 0 | 0.0 | 0.0 | 0.00 | 0.00 | 0.00 | 54 | 1022.4 |
| 20260502200403 | 60 | 0 | 0.0 | 0.0 | 0.00 | 0.00 | 0.00 | 54 | 1022.5 |
| 20260502200303 | 60 | 0 | 0.0 | 0.0 | 0.00 | 0.00 | 0.00 | 54 | 1022.5 |
| 20260502200203 | 60 | 0 | 0.0 | 0.0 | 0.00 | 0.00 | 0.00 | 54 | 1022.4 |
| 20260502200003 | 60 | 0 | 0.0 | 0.0 | 0.00 | 0.00 | 0.00 | 54 | 1022.4 |
| 20260502195903 | 60 | 0 | 0.0 | 0.0 | 0.00 | 0.00 | 0.00 | 54 | 1022.4 |
| 20260502195803 | 60 | 0 | 0.0 | 0.0 | 0.00 | 0.00 | 0.00 | 54 | 1022.3 |
| 20260502195703 | 60 | 0 | 0.0 | 0.0 | 0.00 | 0.00 | 0.00 | 53 | 1022.4 |
| 20260502195603 | 60 | 0 | 0.0 | 0.0 | 0.00 | 0.00 | 0.00 | 54 | 1022.4 |
| 20260502195503 | 60 | 0 | 0.0 | 0.0 | 0.00 | 0.00 | 0.00 | 53 | 1022.4 |
| 20260502195403 | 60 | 0 | 0.0 | 0.0 | 0.00 | 0.00 | 0.00 | 53 | 1022.4 |
| 20260502195305 | 60 | 0 | 0.0 | 0.0 | 0.00 | 0.00 | 0.00 | 53 | 1022.4 |
| 20260502195203 | 60 | 0 | 0.0 | 0.0 | 0.00 | 0.00 | 0.00 | 53 | 1022.3 |
| 20260502195103 | 60 | 0 | 0.0 | 0.0 | 0.00 | 0.00 | 0.00 | 53 | 1022.3 |
| 20260502195003 | 60 | 0 | 0.0 | 0.0 | 0.00 | 0.00 | 0.00 | 53 | 1022.4 |
| 20260502194903 | 60 | 0 | 0.0 | 0.0 | 0.00 | 0.00 | 0.00 | 53 | 1022.2 |
| 20260502194803 | 60 | 0 | 0.0 | 0.0 | 0.00 | 0.00 | 0.00 | 53 | 1022.3 |
| 20260502194703 | 60 | 0 | 0.0 | 0.0 | 0.00 | 0.00 | 0.00 | 53 | 1022.3 |
| 20260502194603 | 60 | 292 | 0.0 | 2.0 | 0.00 | 0.00 | 0.00 | 53 | 1022.3 |
| 20260502194503 | 60 | 292 | 0.0 | 2.0 | 0.00 | 0.00 | 0.00 | 53 | 1022.3 |
| 20260502194403 | 60 | 292 | 0.0 | 2.0 | 0.00 | 0.00 | 0.00 | 53 | 1022.4 |
| 20260502194303 | 60 | 292 | 0.0 | 2.0 | 0.00 | 0.00 | 0.00 | 53 | 1022.4 |
| 20260502194203 | 60 | 292 | 0.0 | 2.0 | 0.00 | 0.00 | 0.00 | 53 | 1022.2 |
| 20260502194103 | 60 | 292 | 0.0 | 2.0 | 0.00 | 0.00 | 0.00 | 53 | 1022.3 |
| 20260502194003 | 60 | 292 | 0.0 | 2.0 | 0.00 | 0.00 | 0.00 | 53 | 1022.3 |
| 20260502193903 | 60 | 292 | 0.0 | 2.0 | 0.00 | 0.00 | 0.00 | 53 | 1022.3 |
| 20260502193803 | 60 | 292 | 0.0 | 2.0 | 0.00 | 0.00 | 0.00 | 53 | 1022.3 |
| 20260502193703 | 60 | 292 | 0.0 | 2.0 | 0.00 | 0.00 | 0.00 | 53 | 1022.3 |
| 20260502193603 | 60 | 0 | 0.0 | 0.0 | 0.00 | 0.00 | 0.00 | 52 | 1022.2 |
| 20260502193503 | 60 | 0 | 0.0 | 0.0 | 0.00 | 0.00 | 0.00 | 52 | 1022.3 |
| 20260502193403 | 61 | 0 | 0.0 | 0.0 | 0.00 | 0.00 | 0.00 | 52 | 1022.2 |
| 20260502193303 | 61 | 0 | 0.0 | 0.0 | 0.00 | 0.00 | 0.00 | 52 | 1022.3 |
| 20260502193203 | 61 | 0 | 0.0 | 0.0 | 0.00 | 0.00 | 0.00 | 52 | 1022.3 |
| 20260502193103 | 61 | 0 | 0.0 | 0.0 | 0.00 | 0.00 | 0.00 | 52 | 1022.3 |
| 20260502193003 | 61 | 0 | 0.0 | 0.0 | 0.00 | 0.00 | 0.00 | 52 | 1022.2 |
| 20260502192903 | 61 | 0 | 0.0 | 0.0 | 0.00 | 0.00 | 0.00 | 52 | 1022.2 |
| 20260502192803 | 61 | 0 | 0.0 | 0.0 | 0.00 | 0.00 | 0.00 | 52 | 1022.3 |
| 20260502192703 | 61 | 306 | 0.0 | 2.0 | 0.00 | 0.00 | 0.00 | 51 | 1022.2 |
| 20260502192603 | 61 | 306 | 0.0 | 2.0 | 0.00 | 0.00 | 0.00 | 51 | 1022.3 |
| 20260502192503 | 61 | 306 | 0.0 | 2.0 | 0.00 | 0.00 | 0.00 | 51 | 1022.3 |
| 20260502192403 | 61 | 299 | 0.0 | 2.0 | 0.00 | 0.00 | 0.00 | 51 | 1022.2 |
| 20260502192305 | 61 | 299 | 0.0 | 2.0 | 0.00 | 0.00 | 0.00 | 51 | 1022.3 |
| 20260502192203 | 61 | 299 | 0.0 | 2.0 | 0.00 | 0.00 | 0.00 | 51 | 1022.2 |
| 20260502192103 | 61 | 296 | 0.0 | 4.0 | 0.00 | 0.00 | 0.00 | 51 | 1022.3 |
| 20260502192003 | 61 | 299 | 0.0 | 4.0 | 0.00 | 0.00 | 0.00 | 51 | 1022.3 |
| 20260502191903 | 61 | 302 | 0.0 | 4.0 | 0.00 | 0.00 | 0.00 | 51 | 1022.2 |
| 20260502191803 | 61 | 302 | 0.0 | 4.0 | 0.00 | 0.00 | 0.00 | 51 | 1022.3 |
| 20260502191703 | 61 | 298 | 0.0 | 4.0 | 0.00 | 0.00 | 0.00 | 51 | 1022.3 |
| 20260502191603 | 61 | 298 | 0.0 | 4.0 | 0.00 | 0.00 | 0.00 | 51 | 1022.3 |
| 20260502191503 | 61 | 298 | 0.0 | 4.0 | 0.00 | 0.00 | 0.00 | 51 | 1022.3 |
| 20260502191403 | 61 | 299 | 0.0 | 4.0 | 0.00 | 0.00 | 0.00 | 51 | 1022.3 |
| 20260502191303 | 61 | 299 | 0.0 | 4.0 | 0.00 | 0.00 | 0.00 | 51 | 1022.2 |
| 20260502191204 | 61 | 298 | 0.0 | 4.0 | 0.00 | 0.00 | 0.00 | 51 | 1022.1 |
| 20260502191104 | 61 | 300 | 0.0 | 3.0 | 0.00 | 0.00 | 0.00 | 51 | 1022.2 |
| 20260502191004 | 61 | 298 | 0.0 | 3.0 | 0.00 | 0.00 | 0.00 | 51 | 1022.2 |
| 20260502190904 | 61 | 298 | 0.0 | 3.0 | 0.00 | 0.00 | 0.00 | 51 | 1022.2 |
| 20260502190804 | 61 | 292 | 0.0 | 3.0 | 0.00 | 0.00 | 0.00 | 51 | 1022.2 |
| 20260502190704 | 61 | 292 | 0.0 | 2.0 | 0.00 | 0.00 | 0.00 | 51 | 1022.2 |
| 20260502190604 | 61 | 302 | 0.0 | 2.0 | 0.00 | 0.00 | 0.00 | 51 | 1022.1 |
| 20260502190504 | 61 | 299 | 0.0 | 3.0 | 0.00 | 0.00 | 0.00 | 51 | 1022.2 |
| 20260502190404 | 61 | 296 | 0.0 | 5.0 | 0.00 | 0.00 | 0.00 | 51 | 1022.2 |
| 20260502190304 | 61 | 295 | 0.0 | 5.0 | 0.00 | 0.00 | 0.00 | 50 | 1022.1 |
| 20260502190204 | 61 | 293 | 0.0 | 5.0 | 0.00 | 0.00 | 0.00 | 51 | 1022.1 |
| 20260502190104 | 61 | 293 | 0.0 | 5.0 | 0.00 | 0.00 | 0.00 | 51 | 1022.1 |
| 20260502190004 | 61 | 293 | 0.0 | 5.0 | 0.00 | 0.00 | 0.00 | 50 | 1022.1 |
| 20260502185904 | 61 | 293 | 0.0 | 5.0 | 0.00 | 0.00 | 0.00 | 50 | 1022.1 |
| 20260502185804 | 61 | 293 | 0.0 | 5.0 | 0.00 | 0.00 | 0.00 | 50 | 1022.1 |
| 20260502185704 | 61 | 293 | 0.0 | 5.0 | 0.00 | 0.00 | 0.00 | 50 | 1022.0 |
| 20260502185604 | 61 | 292 | 0.0 | 5.0 | 0.00 | 0.00 | 0.00 | 50 | 1022.0 |
| 20260502185504 | 61 | 289 | 0.0 | 5.0 | 0.00 | 0.00 | 0.00 | 50 | 1022.0 |
| 20260502185404 | 61 | 282 | 0.0 | 2.0 | 0.00 | 0.00 | 0.00 | 50 | 1021.9 |
| 20260502185305 | 61 | 289 | 0.0 | 2.0 | 0.00 | 0.00 | 0.00 | 50 | 1022.0 |
| 20260502185204 | 61 | 337 | 0.0 | 1.0 | 0.00 | 0.00 | 0.00 | 50 | 1021.9 |
| 20260502185104 | 61 | 307 | 0.0 | 2.0 | 0.00 | 0.00 | 0.00 | 50 | 1022.0 |
| 20260502185004 | 61 | 307 | 0.0 | 2.0 | 0.00 | 0.00 | 0.00 | 50 | 1021.8 |
| 20260502184904 | 61 | 307 | 0.0 | 2.0 | 0.00 | 0.00 | 0.00 | 50 | 1021.8 |
| 20260502184804 | 61 | 307 | 0.0 | 2.0 | 0.00 | 0.00 | 0.00 | 50 | 1021.8 |
| 20260502184704 | 61 | 307 | 0.0 | 2.0 | 0.00 | 0.00 | 0.00 | 50 | 1021.9 |
| 20260502184604 | 61 | 307 | 0.0 | 2.0 | 0.00 | 0.00 | 0.00 | 50 | 1021.9 |
| 20260502184504 | 61 | 307 | 0.0 | 2.0 | 0.00 | 0.00 | 0.00 | 50 | 1021.9 |
| 20260502184404 | 61 | 307 | 0.0 | 2.0 | 0.00 | 0.00 | 0.00 | 50 | 1021.8 |
| 20260502184304 | 61 | 292 | 0.0 | 2.0 | 0.00 | 0.00 | 0.00 | 49 | 1021.8 |
| 20260502184204 | 61 | 292 | 0.0 | 2.0 | 0.00 | 0.00 | 0.00 | 50 | 1021.8 |
| 20260502184104 | 61 | 292 | 0.0 | 2.0 | 0.00 | 0.00 | 0.00 | 49 | 1021.7 |
| 20260502184004 | 61 | 292 | 0.0 | 2.0 | 0.00 | 0.00 | 0.00 | 49 | 1021.8 |
| 20260502183904 | 61 | 292 | 0.0 | 2.0 | 0.00 | 0.00 | 0.00 | 49 | 1021.8 |
| 20260502183804 | 61 | 308 | 0.0 | 3.0 | 0.00 | 0.00 | 0.00 | 49 | 1021.7 |
| 20260502183704 | 61 | 308 | 0.0 | 3.0 | 0.00 | 0.00 | 0.00 | 49 | 1021.7 |
| 20260502183604 | 61 | 302 | 0.0 | 3.0 | 0.00 | 0.00 | 0.00 | 49 | 1021.7 |
| 20260502183504 | 61 | 302 | 0.0 | 3.0 | 0.00 | 0.00 | 0.00 | 49 | 1021.7 |
| 20260502183404 | 61 | 299 | 0.0 | 4.0 | 0.00 | 0.00 | 0.00 | 49 | 1021.7 |
| 20260502183304 | 61 | 298 | 0.0 | 4.0 | 0.00 | 0.00 | 0.00 | 49 | 1021.6 |
| 20260502183204 | 61 | 298 | 0.0 | 4.0 | 0.00 | 0.00 | 0.00 | 48 | 1021.6 |
| 20260502183104 | 62 | 298 | 0.0 | 4.0 | 0.00 | 0.00 | 0.00 | 48 | 1021.6 |
| 20260502183004 | 62 | 296 | 0.0 | 4.0 | 0.00 | 0.00 | 0.00 | 48 | 1021.6 |
| 20260502182904 | 62 | 295 | 1.0 | 5.0 | 0.00 | 0.00 | 0.00 | 48 | 1021.6 |
| 20260502182804 | 62 | 292 | 0.0 | 5.0 | 0.00 | 0.00 | 0.00 | 48 | 1021.6 |
| 20260502182704 | 62 | 292 | 0.0 | 5.0 | 0.00 | 0.00 | 0.00 | 48 | 1021.6 |
| 20260502182604 | 62 | 292 | 0.0 | 5.0 | 0.00 | 0.00 | 0.00 | 48 | 1021.6 |
| 20260502182504 | 62 | 292 | 1.0 | 5.0 | 0.00 | 0.00 | 0.00 | 48 | 1021.5 |
| 20260502182404 | 62 | 292 | 1.0 | 5.0 | 0.00 | 0.00 | 0.00 | 48 | 1021.5 |
| 20260502182305 | 62 | 292 | 1.0 | 5.0 | 0.00 | 0.00 | 0.00 | 48 | 1021.4 |
| 20260502182204 | 62 | 292 | 1.0 | 5.0 | 0.00 | 0.00 | 0.00 | 47 | 1021.4 |
| 20260502182104 | 62 | 292 | 1.0 | 5.0 | 0.00 | 0.00 | 0.00 | 48 | 1021.4 |
| 20260502182003 | 62 | 292 | 1.0 | 5.0 | 0.00 | 0.00 | 0.00 | 47 | 1021.5 |
| 20260502181903 | 62 | 292 | 0.0 | 5.0 | 0.00 | 0.00 | 0.00 | 47 | 1021.4 |
| 20260502181803 | 62 | 292 | 0.0 | 5.0 | 0.00 | 0.00 | 0.00 | 47 | 1021.4 |
| 20260502181703 | 62 | 292 | 0.0 | 5.0 | 0.00 | 0.00 | 0.00 | 47 | 1021.4 |
| 20260502181604 | 62 | 294 | 0.0 | 5.0 | 0.00 | 0.00 | 0.00 | 47 | 1021.4 |
| 20260502181503 | 62 | 294 | 0.0 | 5.0 | 0.00 | 0.00 | 0.00 | 47 | 1021.4 |
| 20260502181403 | 62 | 295 | 0.0 | 5.0 | 0.00 | 0.00 | 0.00 | 47 | 1021.4 |
| 20260502181304 | 62 | 302 | 0.0 | 9.0 | 0.00 | 0.00 | 0.00 | 47 | 1021.4 |
| 20260502181204 | 62 | 309 | 0.0 | 9.0 | 0.00 | 0.00 | 0.00 | 47 | 1021.3 |
| 20260502181103 | 62 | 306 | 0.0 | 9.0 | 0.00 | 0.00 | 0.00 | 47 | 1021.3 |
| 20260502181003 | 62 | 306 | 1.0 | 9.0 | 0.00 | 0.00 | 0.00 | 47 | 1021.4 |
| 20260502180903 | 62 | 305 | 1.0 | 9.0 | 0.00 | 0.00 | 0.00 | 47 | 1021.4 |
| 20260502180803 | 62 | 305 | 1.0 | 9.0 | 0.00 | 0.00 | 0.00 | 47 | 1021.4 |
| 20260502180703 | 62 | 306 | 1.0 | 9.0 | 0.00 | 0.00 | 0.00 | 47 | 1021.3 |
| 20260502180603 | 62 | 304 | 1.0 | 9.0 | 0.00 | 0.00 | 0.00 | 47 | 1021.3 |
| 20260502180503 | 62 | 302 | 1.0 | 9.0 | 0.00 | 0.00 | 0.00 | 47 | 1021.2 |
| 20260502180403 | 62 | 300 | 1.0 | 9.0 | 0.00 | 0.00 | 0.00 | 47 | 1021.2 |
| 20260502180303 | 62 | 300 | 1.0 | 7.0 | 0.00 | 0.00 | 0.00 | 47 | 1021.2 |
| 20260502180203 | 62 | 299 | 1.0 | 7.0 | 0.00 | 0.00 | 0.00 | 47 | 1021.3 |
| 20260502180103 | 62 | 299 | 1.0 | 7.0 | 0.00 | 0.00 | 0.00 | 47 | 1021.2 |